UAE4224 HESH-SBGL

Flight info

Callsign UAE4224
Flight time 12h 28m
Altitude 31000
Route IMPIT1C HGD V608 NABED/N0503F330 V608 AST/N0502F320 W615 NAKDO/N0501F340 M999 DITAR R778 TONBA DCT ILDOR UQ592 ILBIP/N0491F360 UQ592 UBUBI DCT ANPIR/N0485F380 UN548 VODSA/N0479F400 UN548 VRI UN401 MOLSU
Aircraft B772/H-SDE2E3FGHIJ5LORVWXY/LB1D1

Departure

Time 2026-04-26 16:45
Airport Sharm El Sheikh International Airport (HESH)

Arrival

Time 2026-04-27 05:14
Airport Rio Galeão – Tom Jobim International Airport (SBGL)
Time Latitude Longitude Altitude Speed Heading
2026-04-26 16:30 27.98041 34.38948 202 ft 0 kts 132°
2026-04-26 16:40 27.98024 34.38969 202 ft 7 kts 132°
2026-04-26 16:40 27.97975 34.39037 198 ft 14 kts 129°
2026-04-26 16:40 27.97951 34.39097 195 ft 9 kts 72°
2026-04-26 16:40 27.98009 34.39169 194 ft 14 kts 42°
2026-04-26 16:41 27.98085 34.39248 191 ft 14 kts 43°
2026-04-26 16:41 27.98160 34.39327 191 ft 14 kts 42°
2026-04-26 16:41 27.98248 34.39418 186 ft 20 kts 42°
2026-04-26 16:41 27.98324 34.39498 185 ft 14 kts 43°
2026-04-26 16:42 27.98391 34.39569 184 ft 12 kts 43°
2026-04-26 16:42 27.98466 34.39646 182 ft 15 kts 43°
2026-04-26 16:42 27.98540 34.39724 181 ft 16 kts 43°
2026-04-26 16:42 27.98620 34.39809 179 ft 18 kts 43°
2026-04-26 16:43 27.98723 34.39916 178 ft 21 kts 42°
2026-04-26 16:43 27.98846 34.40043 174 ft 25 kts 43°
2026-04-26 16:43 27.98972 34.40174 172 ft 10 kts 43°
2026-04-26 16:43 27.98991 34.40242 170 ft 12 kts 122°
2026-04-26 16:44 27.98941 34.40309 169 ft 12 kts 133°
2026-04-26 16:44 27.98883 34.40363 167 ft 9 kts 181°
2026-04-26 16:44 27.98844 34.40342 168 ft 0 kts 220°
2026-04-26 16:44 27.98786 34.40283 169 ft 39 kts 223°
2026-04-26 16:45 27.98405 34.39887 175 ft 106 kts 223°
2026-04-26 16:45 27.97700 34.39154 187 ft 164 kts 222°
2026-04-26 16:45 27.96798 34.38199 563 ft 179 kts 220°
2026-04-26 16:45 27.95864 34.37231 1110 ft 189 kts 223°
2026-04-26 16:46 27.94909 34.36218 1601 ft 194 kts 226°
2026-04-26 16:46 27.93858 34.35091 1717 ft 216 kts 228°
2026-04-26 16:46 27.92732 34.33876 1954 ft 231 kts 227°
2026-04-26 16:46 27.91564 34.32623 2535 ft 231 kts 227°
2026-04-26 16:47 27.90399 34.31374 3028 ft 236 kts 227°
2026-04-26 16:47 27.89150 34.30031 3215 ft 256 kts 227°
2026-04-26 16:47 27.88005 34.29017 3573 ft 265 kts 210°
2026-04-26 16:47 27.86182 34.28492 4161 ft 273 kts 181°
2026-04-26 16:48 27.84305 34.29023 4795 ft 278 kts 152°
2026-04-26 16:48 27.82881 34.30491 5387 ft 283 kts 125°
2026-04-26 16:48 27.81906 34.32477 5986 ft 285 kts 118°
2026-04-26 16:48 27.81006 34.34460 6506 ft 288 kts 121°
2026-04-26 16:49 27.79768 34.36237 6953 ft 286 kts 146°
2026-04-26 16:49 27.78030 34.37223 7405 ft 282 kts 171°
2026-04-26 16:49 27.76075 34.37242 7981 ft 273 kts 197°
2026-04-26 16:49 27.74397 34.36356 8526 ft 268 kts 221°
2026-04-26 16:50 27.73164 34.34800 9062 ft 267 kts 236°
2026-04-26 16:50 27.72149 34.33050 9653 ft 267 kts 238°
2026-04-26 16:50 27.71163 34.31258 10135 ft 270 kts 238°
2026-04-26 16:50 27.70149 34.29404 10333 ft 285 kts 238°
2026-04-26 16:51 27.69077 34.27446 10494 ft 302 kts 238°
2026-04-26 16:51 27.67951 34.25392 10706 ft 316 kts 238°
2026-04-26 16:51 27.66770 34.23238 10873 ft 331 kts 238°
2026-04-26 16:51 27.65519 34.20960 11075 ft 346 kts 239°
2026-04-26 16:52 27.64235 34.18621 11446 ft 353 kts 239°
2026-04-26 16:52 27.63389 34.17080 11840 ft 354 kts 239°
2026-04-26 16:52 27.61636 34.13911 12623 ft 355 kts 237°
2026-04-26 16:52 27.60096 34.11753 13173 ft 359 kts 228°
2026-04-26 16:53 27.58214 34.09911 13724 ft 363 kts 218°
2026-04-26 16:53 27.56097 34.08288 14238 ft 367 kts 217°
2026-04-26 16:53 27.53958 34.06687 14819 ft 368 kts 217°
2026-04-26 16:53 27.51815 34.05083 15338 ft 371 kts 217°
2026-04-26 16:54 27.49675 34.03481 15843 ft 373 kts 217°
2026-04-26 16:54 27.47493 34.01846 16354 ft 375 kts 217°
2026-04-26 16:54 27.45312 34.00212 16845 ft 377 kts 217°
2026-04-26 16:54 27.43129 33.98577 17326 ft 379 kts 217°
2026-04-26 16:55 27.40911 33.96916 17810 ft 381 kts 217°
2026-04-26 16:55 27.38711 33.95270 18291 ft 383 kts 217°
2026-04-26 16:55 27.36472 33.93595 18674 ft 387 kts 217°
2026-04-26 16:55 27.34227 33.91916 19095 ft 389 kts 218°
2026-04-26 16:56 27.29677 33.88516 19977 ft 394 kts 218°
2026-04-26 16:56 27.27398 33.86814 20365 ft 396 kts 218°
2026-04-26 16:56 27.25149 33.85037 20752 ft 396 kts 223°
2026-04-26 16:57 27.23142 33.82917 21046 ft 396 kts 232°
2026-04-26 16:57 27.21452 33.80449 21426 ft 395 kts 240°
2026-04-26 16:57 27.19243 33.74862 22272 ft 393 kts 256°
2026-04-26 16:58 27.18747 33.71847 22696 ft 393 kts 264°
2026-04-26 16:58 27.18650 33.69798 22937 ft 395 kts 270°
2026-04-26 16:58 27.19199 33.62599 23831 ft 399 kts 274°
2026-04-26 16:59 27.19475 33.59515 24210 ft 400 kts 274°
2026-04-26 16:59 27.20021 33.53273 24901 ft 403 kts 274°
2026-04-26 17:00 27.20561 33.46964 25590 ft 405 kts 274°
2026-04-26 17:00 27.21096 33.40643 26204 ft 408 kts 274°
2026-04-26 17:00 27.21360 33.37504 26496 ft 409 kts 274°
2026-04-26 17:01 27.21630 33.34274 26755 ft 412 kts 272°
2026-04-26 17:01 27.21895 33.31099 27083 ft 412 kts 272°
2026-04-26 17:01 27.22163 33.27869 27455 ft 412 kts 272°
2026-04-26 17:01 27.22426 33.24681 27787 ft 413 kts 272°
2026-04-26 17:02 27.22691 33.21475 28062 ft 415 kts 272°
2026-04-26 17:02 27.22955 33.18253 28356 ft 416 kts 272°
2026-04-26 17:02 27.23222 33.15000 28638 ft 417 kts 273°
2026-04-26 17:02 27.23488 33.11745 28901 ft 418 kts 272°
2026-04-26 17:03 27.23751 33.08506 29162 ft 420 kts 272°
2026-04-26 17:03 27.24019 33.05215 29396 ft 422 kts 272°
2026-04-26 17:03 27.24282 33.01960 29576 ft 424 kts 272°
2026-04-26 17:03 27.24550 32.98645 29828 ft 424 kts 272°
2026-04-26 17:04 27.24817 32.95331 30110 ft 423 kts 272°
2026-04-26 17:04 27.25077 32.92092 30408 ft 421 kts 272°
2026-04-26 17:04 27.25339 32.88829 30775 ft 416 kts 272°
2026-04-26 17:04 27.25598 32.85578 30979 ft 416 kts 272°
2026-04-26 17:05 27.26109 32.79153 31005 ft 412 kts 272°
2026-04-26 17:05 27.26614 32.72752 31003 ft 412 kts 272°
2026-04-26 17:06 27.27118 32.66324 31001 ft 411 kts 272°
2026-04-26 17:06 27.27619 32.59911 31018 ft 412 kts 272°
2026-04-26 17:07 27.28120 32.53459 31019 ft 412 kts 272°
2026-04-26 17:07 27.28614 32.47041 31024 ft 414 kts 272°
2026-04-26 17:08 27.29104 32.40652 31025 ft 411 kts 272°
2026-04-26 17:08 27.29595 32.34206 31030 ft 412 kts 271°
2026-04-26 17:09 27.29746 32.28892 31047 ft 409 kts 264°
2026-04-26 17:09 27.28553 32.21529 31051 ft 410 kts 257°
2026-04-26 17:10 27.27247 32.15303 31045 ft 409 kts 257°
2026-04-26 17:10 27.25941 32.09108 31036 ft 408 kts 257°
2026-04-26 17:11 27.24629 32.02902 31033 ft 409 kts 257°
2026-04-26 17:11 27.23311 31.96685 31030 ft 410 kts 257°
2026-04-26 17:12 27.21322 31.87334 31026 ft 411 kts 257°
2026-04-26 17:13 27.19322 31.77966 31022 ft 411 kts 257°
2026-04-26 17:14 27.17328 31.68657 31016 ft 410 kts 257°
2026-04-26 17:14 27.15313 31.59283 31010 ft 410 kts 257°
2026-04-26 17:15 27.13287 31.49891 30995 ft 412 kts 257°
2026-04-26 17:16 27.11933 31.43631 30987 ft 414 kts 257°
2026-04-26 17:16 27.10572 31.37349 30980 ft 412 kts 257°
2026-04-26 17:17 27.09212 31.31095 30993 ft 414 kts 256°
2026-04-26 17:17 27.07848 31.24829 30991 ft 412 kts 256°
2026-04-26 17:18 27.06488 31.18599 30997 ft 412 kts 256°
2026-04-26 17:18 27.05114 31.12320 31006 ft 413 kts 257°
2026-04-26 17:19 27.02992 31.02962 31019 ft 414 kts 253°
2026-04-26 17:19 27.01003 30.96932 31027 ft 413 kts 251°
2026-04-26 17:20 26.99652 30.92911 31029 ft 415 kts 251°
2026-04-26 17:20 26.96951 30.84886 31025 ft 414 kts 251°
2026-04-26 17:21 26.94921 30.78868 31021 ft 413 kts 251°
2026-04-26 17:21 26.93612 30.72584 31122 ft 419 kts 263°
2026-04-26 17:22 26.93513 30.69304 31394 ft 418 kts 269°
2026-04-26 17:22 26.93597 30.66103 31817 ft 411 kts 269°
2026-04-26 17:22 26.93688 30.62943 32235 ft 403 kts 269°
2026-04-26 17:22 26.93776 30.59837 32515 ft 400 kts 269°
2026-04-26 17:23 26.93863 30.56723 32759 ft 399 kts 269°
2026-04-26 17:23 26.93949 30.53607 32925 ft 400 kts 269°
2026-04-26 17:23 26.94034 30.50514 33068 ft 402 kts 269°
2026-04-26 17:23 26.94120 30.47363 33298 ft 401 kts 269°
2026-04-26 17:24 26.94204 30.44266 33571 ft 400 kts 269°
2026-04-26 17:24 26.94287 30.41159 33822 ft 399 kts 269°
2026-04-26 17:24 26.94369 30.38081 34002 ft 399 kts 269°
2026-04-26 17:24 26.94451 30.34956 34008 ft 398 kts 268°
2026-04-26 17:25 26.94612 30.28814 34035 ft 395 kts 269°
2026-04-26 17:25 26.94769 30.22657 34034 ft 397 kts 268°
2026-04-26 17:26 26.94925 30.16484 34032 ft 396 kts 269°
2026-04-26 17:26 26.95077 30.10353 34031 ft 395 kts 269°
2026-04-26 17:27 26.95227 30.04185 34031 ft 398 kts 269°
2026-04-26 17:27 26.95374 29.98015 34029 ft 396 kts 269°
2026-04-26 17:28 26.95519 29.91853 34034 ft 397 kts 269°
2026-04-26 17:28 26.95661 29.85673 34033 ft 397 kts 268°
2026-04-26 17:29 26.95777 29.80557 34033 ft 397 kts 268°
2026-04-26 17:29 26.95937 29.73335 34034 ft 396 kts 269°
2026-04-26 17:30 26.96070 29.67178 34031 ft 398 kts 268°
2026-04-26 17:30 26.96202 29.60987 34028 ft 396 kts 269°
2026-04-26 17:31 26.96330 29.54827 34030 ft 397 kts 269°
2026-04-26 17:31 26.96456 29.48666 34031 ft 397 kts 269°
2026-04-26 17:32 26.96580 29.42488 34024 ft 397 kts 269°
2026-04-26 17:32 26.96700 29.36288 34026 ft 398 kts 269°
2026-04-26 17:33 26.96818 29.30139 34045 ft 398 kts 268°
2026-04-26 17:34 26.96990 29.20866 34047 ft 397 kts 269°
2026-04-26 17:34 26.97101 29.14704 34043 ft 398 kts 269°
2026-04-26 17:35 26.97209 29.08541 34040 ft 397 kts 269°
2026-04-26 17:35 26.97315 29.02350 34040 ft 398 kts 269°
2026-04-26 17:36 26.97419 28.96155 34038 ft 397 kts 269°
2026-04-26 17:36 26.97519 28.89984 34037 ft 398 kts 269°
2026-04-26 17:37 26.97617 28.83801 34029 ft 398 kts 269°
2026-04-26 17:37 26.97712 28.77600 34027 ft 399 kts 269°
2026-04-26 17:38 26.97850 28.68313 34027 ft 400 kts 269°
2026-04-26 17:38 26.97939 28.62101 34017 ft 400 kts 269°
2026-04-26 17:39 26.98025 28.55899 34015 ft 401 kts 269°
2026-04-26 17:39 26.98109 28.49654 34036 ft 400 kts 269°
2026-04-26 17:40 26.98163 28.45515 34033 ft 400 kts 269°
2026-04-26 17:40 26.98267 28.37242 34023 ft 401 kts 269°
2026-04-26 17:41 26.98305 28.34113 33897 ft 400 kts 269°
2026-04-26 17:41 26.98343 28.30998 34047 ft 400 kts 268°
2026-04-26 17:41 26.98415 28.24750 34029 ft 403 kts 269°
2026-04-26 17:42 26.98485 28.18506 34053 ft 400 kts 269°
2026-04-26 17:42 26.98552 28.12263 34019 ft 403 kts 269°
2026-04-26 17:43 26.98585 28.09129 34197 ft 403 kts 269°
2026-04-26 17:43 26.98617 28.06002 34216 ft 403 kts 269°
2026-04-26 17:43 26.98648 28.02851 34046 ft 403 kts 269°
2026-04-26 17:43 26.98680 27.99737 34035 ft 399 kts 268°
2026-04-26 17:44 26.98709 27.96619 33919 ft 400 kts 269°
2026-04-26 17:44 26.98738 27.93499 34012 ft 401 kts 269°
2026-04-26 17:44 26.98795 27.87244 34085 ft 403 kts 269°
2026-04-26 17:45 26.98849 27.80979 34060 ft 401 kts 269°
2026-04-26 17:45 26.98899 27.74718 34044 ft 403 kts 269°
2026-04-26 17:46 26.98947 27.68456 34152 ft 406 kts 269°
2026-04-26 17:46 26.98993 27.62184 34057 ft 401 kts 269°
2026-04-26 17:47 26.99021 27.58013 34067 ft 404 kts 269°
2026-04-26 17:47 26.99076 27.49651 34055 ft 403 kts 269°
2026-04-26 17:48 26.99113 27.43351 34063 ft 402 kts 269°
2026-04-26 17:48 26.99147 27.37107 34061 ft 402 kts 269°
2026-04-26 17:49 26.99179 27.30837 34090 ft 403 kts 269°
2026-04-26 17:49 26.99207 27.24589 34081 ft 403 kts 269°
2026-04-26 17:50 26.99234 27.18314 34079 ft 402 kts 269°
2026-04-26 17:50 26.99257 27.12031 34067 ft 403 kts 269°
2026-04-26 17:51 26.99278 27.05766 34069 ft 403 kts 269°
2026-04-26 17:51 26.99295 26.99504 34069 ft 402 kts 269°
2026-04-26 17:52 26.99310 26.93225 34075 ft 405 kts 269°
2026-04-26 17:52 26.99323 26.86946 34069 ft 402 kts 269°
2026-04-26 17:53 26.99332 26.80660 34069 ft 404 kts 269°
2026-04-26 17:54 26.99341 26.71267 34069 ft 405 kts 269°
2026-04-26 17:54 26.99344 26.64943 34073 ft 404 kts 269°
2026-04-26 17:55 26.99344 26.58676 34078 ft 405 kts 269°
2026-04-26 17:55 26.99340 26.52376 34078 ft 404 kts 269°
2026-04-26 17:56 26.99334 26.46061 34069 ft 406 kts 269°
2026-04-26 17:57 26.99314 26.33464 34086 ft 406 kts 269°
2026-04-26 17:57 26.99300 26.27149 34092 ft 405 kts 269°
2026-04-26 17:58 26.99263 26.14587 34075 ft 404 kts 269°
2026-04-26 17:59 26.99228 26.05078 34106 ft 406 kts 269°
2026-04-26 17:59 26.99201 25.98766 34022 ft 405 kts 269°
2026-04-26 18:00 26.99172 25.92472 33982 ft 406 kts 269°
2026-04-26 18:00 26.99139 25.86135 34037 ft 408 kts 269°
2026-04-26 18:01 26.99122 25.82944 34193 ft 406 kts 269°
2026-04-26 18:01 26.99104 25.79771 34142 ft 408 kts 269°
2026-04-26 18:01 26.99065 25.73448 33971 ft 406 kts 269°
2026-04-26 18:02 26.99045 25.70308 34199 ft 407 kts 269°
2026-04-26 18:02 26.99038 25.69246 34137 ft 409 kts 269°
2026-04-26 18:02 26.98980 25.60769 33972 ft 407 kts 269°
2026-04-26 18:03 26.98957 25.57618 34232 ft 407 kts 269°
2026-04-26 18:03 26.98934 25.54458 34108 ft 407 kts 269°
2026-04-26 18:03 26.98884 25.48143 34242 ft 407 kts 269°
2026-04-26 18:04 26.98859 25.44965 34101 ft 408 kts 269°
2026-04-26 18:04 26.98832 25.41824 34095 ft 405 kts 269°
2026-04-26 18:05 26.98748 25.32304 33985 ft 409 kts 269°
2026-04-26 18:05 26.98719 25.29129 34089 ft 406 kts 268°
2026-04-26 18:05 26.98689 25.25987 34184 ft 410 kts 269°
2026-04-26 18:06 26.98627 25.19626 34166 ft 405 kts 268°
2026-04-26 18:06 26.98503 25.13297 34284 ft 410 kts 265°
2026-04-26 18:06 26.98090 25.10101 34005 ft 413 kts 259°
2026-04-26 18:07 26.97317 25.07024 34111 ft 410 kts 253°
2026-04-26 18:07 26.94752 25.01248 34120 ft 421 kts 240°
2026-04-26 18:08 26.90878 24.96273 34132 ft 428 kts 228°
2026-04-26 18:08 26.85878 24.92445 34115 ft 443 kts 218°
2026-04-26 18:09 26.80477 24.89065 34109 ft 444 kts 217°
2026-04-26 18:09 26.75049 24.85709 34058 ft 444 kts 217°
2026-04-26 18:10 26.69646 24.82388 34118 ft 444 kts 217°
2026-04-26 18:10 26.64219 24.79064 34100 ft 446 kts 217°
2026-04-26 18:11 26.58759 24.75729 34175 ft 447 kts 217°
2026-04-26 18:11 26.53350 24.72432 34109 ft 444 kts 217°
2026-04-26 18:12 26.47895 24.69110 34113 ft 444 kts 217°
2026-04-26 18:12 26.42479 24.65817 34120 ft 443 kts 217°
2026-04-26 18:13 26.37052 24.62519 34123 ft 445 kts 217°
2026-04-26 18:13 26.31653 24.59245 34108 ft 441 kts 217°
2026-04-26 18:14 26.26194 24.55935 34119 ft 443 kts 217°
2026-04-26 18:14 26.20768 24.52649 34124 ft 445 kts 217°
2026-04-26 18:15 26.15335 24.49365 34123 ft 442 kts 217°
2026-04-26 18:15 26.09946 24.46109 34114 ft 442 kts 217°
2026-04-26 18:16 26.04530 24.42840 34133 ft 441 kts 217°
2026-04-26 18:16 25.96392 24.37935 34124 ft 441 kts 218°
2026-04-26 18:17 25.90991 24.34684 34133 ft 443 kts 217°
2026-04-26 18:17 25.85510 24.31389 34139 ft 442 kts 217°
2026-04-26 18:18 25.80087 24.28131 34143 ft 445 kts 217°
2026-04-26 18:18 25.74654 24.24873 34145 ft 441 kts 217°
2026-04-26 18:19 25.69262 24.21640 34139 ft 443 kts 217°
2026-04-26 18:19 25.63816 24.18378 34139 ft 443 kts 217°
2026-04-26 18:20 25.58385 24.15131 34138 ft 444 kts 217°
2026-04-26 18:20 25.54744 24.12954 34131 ft 445 kts 217°
2026-04-26 18:21 25.47519 24.08643 34141 ft 442 kts 217°
2026-04-26 18:21 25.42100 24.05411 34132 ft 442 kts 217°
2026-04-26 18:22 25.36649 24.02164 34134 ft 443 kts 217°
2026-04-26 18:22 25.31255 23.98956 34133 ft 440 kts 217°
2026-04-26 18:23 25.25849 23.95741 34133 ft 443 kts 217°
2026-04-26 18:23 25.20409 23.92511 34140 ft 441 kts 217°
2026-04-26 18:24 25.15008 23.89308 34131 ft 440 kts 217°
2026-04-26 18:24 25.09587 23.86095 34139 ft 441 kts 217°
2026-04-26 18:25 25.04170 23.82888 34134 ft 442 kts 217°
2026-04-26 18:25 24.98770 23.79694 34137 ft 441 kts 217°
2026-04-26 18:26 24.93345 23.76488 34142 ft 443 kts 217°
2026-04-26 18:26 24.87926 23.73290 34138 ft 442 kts 217°
2026-04-26 18:27 24.82482 23.70080 34137 ft 443 kts 217°
2026-04-26 18:27 24.77055 23.66882 34133 ft 445 kts 217°
2026-04-26 18:28 24.71596 23.63671 34136 ft 442 kts 217°
2026-04-26 18:28 24.66152 23.60471 34132 ft 443 kts 217°
2026-04-26 18:29 24.60711 23.57276 34131 ft 442 kts 217°
2026-04-26 18:29 24.55286 23.54092 34126 ft 442 kts 217°
2026-04-26 18:30 24.49845 23.50904 34124 ft 443 kts 217°
2026-04-26 18:30 24.44381 23.47703 34125 ft 444 kts 217°
2026-04-26 18:31 24.38914 23.44505 34121 ft 446 kts 217°
2026-04-26 18:31 24.33447 23.41312 34119 ft 442 kts 217°
2026-04-26 18:32 24.27980 23.38119 34123 ft 447 kts 217°
2026-04-26 18:32 24.22479 23.34911 34122 ft 446 kts 216°
2026-04-26 18:33 24.17129 23.31578 34145 ft 437 kts 223°
2026-04-26 18:33 24.12749 23.27194 34142 ft 424 kts 236°
2026-04-26 18:34 24.09095 23.22099 34147 ft 424 kts 238°
2026-04-26 18:34 24.05479 23.17032 34147 ft 422 kts 237°
2026-04-26 18:35 24.01853 23.11976 34143 ft 424 kts 238°
2026-04-26 18:35 23.98214 23.06918 34144 ft 425 kts 238°
2026-04-26 18:36 23.94571 23.01865 34143 ft 423 kts 238°
2026-04-26 18:36 23.90921 22.96808 34139 ft 425 kts 238°
2026-04-26 18:37 23.87242 22.91719 34143 ft 426 kts 238°
2026-04-26 18:37 23.83575 22.86652 34142 ft 424 kts 237°
2026-04-26 18:38 23.79896 22.81573 34140 ft 426 kts 237°
2026-04-26 18:38 23.76240 22.76534 34138 ft 424 kts 238°
2026-04-26 18:39 23.72559 22.71462 34135 ft 427 kts 237°
2026-04-26 18:39 23.68893 22.66418 34131 ft 424 kts 237°
2026-04-26 18:40 23.65222 22.61371 34127 ft 426 kts 238°
2026-04-26 18:40 23.61519 22.56286 34132 ft 426 kts 238°
2026-04-26 18:41 23.57847 22.51248 34125 ft 427 kts 238°
2026-04-26 18:41 23.54135 22.46160 34128 ft 428 kts 238°
2026-04-26 18:42 23.50437 22.41097 34129 ft 429 kts 237°
2026-04-26 18:42 23.46735 22.36034 34127 ft 427 kts 237°
2026-04-26 18:43 23.43019 22.30955 34150 ft 430 kts 237°
2026-04-26 18:43 23.39308 22.25891 34153 ft 428 kts 237°
2026-04-26 18:44 23.35600 22.20836 34152 ft 426 kts 237°
2026-04-26 18:44 23.31889 22.15779 34152 ft 429 kts 237°
2026-04-26 18:45 23.28170 22.10717 34155 ft 429 kts 237°
2026-04-26 18:45 23.24449 22.05660 34153 ft 428 kts 237°
2026-04-26 18:46 23.20713 22.00584 34154 ft 431 kts 237°
2026-04-26 18:46 23.16990 21.95532 34153 ft 430 kts 237°
2026-04-26 18:47 23.13240 21.90449 34152 ft 431 kts 237°
2026-04-26 18:47 23.09502 21.85387 34152 ft 429 kts 237°
2026-04-26 18:48 23.05767 21.80334 34149 ft 432 kts 237°
2026-04-26 18:48 23.01998 21.75241 34146 ft 430 kts 237°
2026-04-26 18:49 22.98229 21.70152 34144 ft 431 kts 237°
2026-04-26 18:49 22.94494 21.65114 34145 ft 431 kts 237°
2026-04-26 18:50 22.90732 21.60044 34142 ft 432 kts 237°
2026-04-26 18:50 22.86957 21.54962 34140 ft 432 kts 237°
2026-04-26 18:51 22.83176 21.49876 34138 ft 435 kts 237°
2026-04-26 18:51 22.79376 21.44773 34138 ft 433 kts 237°
2026-04-26 18:52 22.75594 21.39696 34139 ft 433 kts 237°
2026-04-26 18:52 22.71797 21.34603 34141 ft 436 kts 237°
2026-04-26 18:53 22.68001 21.29519 34159 ft 433 kts 237°
2026-04-26 18:53 22.64193 21.24423 34157 ft 436 kts 237°
2026-04-26 18:54 22.60389 21.19337 34160 ft 434 kts 237°
2026-04-26 18:54 22.56600 21.14276 34164 ft 437 kts 237°
2026-04-26 18:55 22.52750 21.09138 34165 ft 437 kts 237°
2026-04-26 18:55 22.48926 21.04040 34170 ft 437 kts 237°
2026-04-26 18:56 22.45125 20.98979 34173 ft 435 kts 237°
2026-04-26 18:56 22.41299 20.93887 34168 ft 437 kts 237°
2026-04-26 18:57 22.38106 20.89643 34169 ft 438 kts 237°
2026-04-26 18:57 22.33602 20.83662 34160 ft 437 kts 237°
2026-04-26 18:58 22.29758 20.78562 34152 ft 437 kts 237°
2026-04-26 18:58 22.25910 20.73462 34144 ft 440 kts 237°
2026-04-26 18:59 22.22052 20.68354 34143 ft 437 kts 237°
2026-04-26 18:59 22.18206 20.63265 34138 ft 439 kts 237°
2026-04-26 19:00 22.14346 20.58165 34143 ft 438 kts 237°
2026-04-26 19:00 22.10528 20.53123 34138 ft 439 kts 237°
2026-04-26 19:01 22.06686 20.48056 34137 ft 440 kts 237°
2026-04-26 19:01 22.02813 20.42952 34139 ft 438 kts 236°
2026-04-26 19:02 21.98931 20.37841 34137 ft 440 kts 236°
2026-04-26 19:02 21.95710 20.33604 34152 ft 440 kts 236°
2026-04-26 19:03 21.91183 20.27656 34156 ft 439 kts 236°
2026-04-26 19:03 21.87284 20.22537 34158 ft 441 kts 236°
2026-04-26 19:04 21.83406 20.17450 34159 ft 441 kts 236°
2026-04-26 19:04 21.79497 20.12329 34157 ft 442 kts 236°
2026-04-26 19:05 21.73665 20.04696 34158 ft 442 kts 236°
2026-04-26 19:06 21.69761 19.99593 34162 ft 440 kts 236°
2026-04-26 19:06 21.65866 19.94506 34169 ft 441 kts 236°
2026-04-26 19:07 21.61971 19.89423 34175 ft 443 kts 236°
2026-04-26 19:07 21.58060 19.84326 34175 ft 443 kts 236°
2026-04-26 19:08 21.54132 19.79207 34182 ft 443 kts 236°
2026-04-26 19:08 21.50196 19.74083 34176 ft 443 kts 236°
2026-04-26 19:09 21.46269 19.68975 34190 ft 444 kts 236°
2026-04-26 19:09 21.42352 19.63886 34183 ft 444 kts 236°
2026-04-26 19:10 21.38391 19.58744 34198 ft 445 kts 236°
2026-04-26 19:10 21.34474 19.53665 34202 ft 444 kts 236°
2026-04-26 19:11 21.30519 19.48540 34202 ft 446 kts 236°
2026-04-26 19:11 21.26573 19.43432 34202 ft 445 kts 236°
2026-04-26 19:12 21.22611 19.38308 34209 ft 447 kts 236°
2026-04-26 19:12 21.18623 19.33155 34244 ft 447 kts 235°
2026-04-26 19:13 21.14651 19.28027 34246 ft 447 kts 236°
2026-04-26 19:13 21.10668 19.22890 34254 ft 449 kts 235°
2026-04-26 19:14 21.06690 19.17764 34267 ft 450 kts 235°
2026-04-26 19:14 21.02705 19.12635 34251 ft 449 kts 235°
2026-04-26 19:15 20.98689 19.07469 34251 ft 451 kts 235°
2026-04-26 19:15 20.94686 19.02325 34251 ft 451 kts 235°
2026-04-26 19:16 20.90661 18.97159 34257 ft 450 kts 235°
2026-04-26 19:16 20.86648 18.92011 34271 ft 451 kts 235°
2026-04-26 19:17 20.82622 18.86852 34281 ft 452 kts 235°
2026-04-26 19:17 20.78605 18.81710 34297 ft 449 kts 235°
2026-04-26 19:18 20.74589 18.76573 34298 ft 452 kts 235°
2026-04-26 19:18 20.70553 18.71415 34295 ft 452 kts 235°
2026-04-26 19:19 20.66544 18.66298 34301 ft 451 kts 235°
2026-04-26 19:19 20.62511 18.61153 34306 ft 452 kts 235°
2026-04-26 19:20 20.58478 18.56014 34308 ft 450 kts 235°
2026-04-26 19:20 20.54462 18.50900 34320 ft 451 kts 235°
2026-04-26 19:21 20.50431 18.45773 34331 ft 451 kts 235°
2026-04-26 19:21 20.46380 18.40622 34335 ft 452 kts 235°
2026-04-26 19:22 20.42343 18.35496 34334 ft 454 kts 235°
2026-04-26 19:22 20.38272 18.30331 34347 ft 454 kts 234°
2026-04-26 19:23 20.34205 18.25176 34324 ft 455 kts 234°
2026-04-26 19:23 20.30144 18.20034 34308 ft 453 kts 234°
2026-04-26 19:24 20.26082 18.14894 34278 ft 454 kts 234°
2026-04-26 19:24 20.19970 18.07169 34239 ft 456 kts 235°
2026-04-26 19:25 20.17247 18.03730 34212 ft 457 kts 234°
2026-04-26 19:25 20.11787 17.96843 34173 ft 458 kts 234°
2026-04-26 19:26 20.07702 17.91697 34180 ft 456 kts 234°
2026-04-26 19:26 20.03629 17.86569 34178 ft 456 kts 234°
2026-04-26 19:27 19.99499 17.81373 34167 ft 457 kts 234°
2026-04-26 19:27 19.95432 17.76263 34162 ft 455 kts 234°
2026-04-26 19:28 19.91335 17.71117 34158 ft 458 kts 234°
2026-04-26 19:28 19.87221 17.65956 34152 ft 458 kts 234°
2026-04-26 19:29 19.83093 17.60781 34145 ft 457 kts 234°
2026-04-26 19:29 19.79008 17.55665 34137 ft 458 kts 234°
2026-04-26 19:30 19.74858 17.50473 34128 ft 458 kts 234°
2026-04-26 19:30 19.71426 17.46182 34121 ft 459 kts 234°
2026-04-26 19:31 19.66598 17.40151 34109 ft 460 kts 234°
2026-04-26 19:31 19.62467 17.34996 34097 ft 459 kts 234°
2026-04-26 19:32 19.58329 17.29836 34101 ft 461 kts 233°
2026-04-26 19:32 19.54182 17.24671 34097 ft 459 kts 233°
2026-04-26 19:33 19.50046 17.19521 34091 ft 461 kts 234°
2026-04-26 19:33 19.45879 17.14339 34084 ft 461 kts 233°
2026-04-26 19:34 19.41720 17.09172 34081 ft 461 kts 234°
2026-04-26 19:34 19.37572 17.04022 34075 ft 461 kts 233°
2026-04-26 19:35 19.33402 16.98849 34076 ft 461 kts 233°
2026-04-26 19:35 19.29204 16.93647 34069 ft 463 kts 233°
2026-04-26 19:36 19.25743 16.89360 34068 ft 462 kts 233°
2026-04-26 19:36 19.20865 16.83325 34062 ft 462 kts 233°
2026-04-26 19:37 19.16707 16.78185 34063 ft 462 kts 233°
2026-04-26 19:37 19.12510 16.73000 34053 ft 463 kts 233°
2026-04-26 19:38 19.08343 16.67859 34046 ft 463 kts 233°
2026-04-26 19:38 19.04136 16.62672 34041 ft 463 kts 233°
2026-04-26 19:39 18.99945 16.57508 34038 ft 463 kts 233°
2026-04-26 19:39 18.95770 16.52369 34036 ft 463 kts 233°
2026-04-26 19:40 18.91570 16.47203 34031 ft 462 kts 233°
2026-04-26 19:40 18.87377 16.42050 34026 ft 463 kts 233°
2026-04-26 19:41 18.83186 16.36904 34023 ft 463 kts 233°
2026-04-26 19:41 18.79692 16.32617 34033 ft 464 kts 233°
2026-04-26 19:42 18.74757 16.26568 34028 ft 464 kts 233°
2026-04-26 19:42 18.70572 16.21442 34023 ft 463 kts 233°
2026-04-26 19:43 18.66363 16.16291 34020 ft 463 kts 233°
2026-04-26 19:43 18.62155 16.11145 34018 ft 464 kts 233°
2026-04-26 19:44 18.57934 16.05988 34018 ft 465 kts 233°
2026-04-26 19:44 18.53923 16.00678 34012 ft 460 kts 241°
2026-04-26 19:45 18.51292 15.94572 34014 ft 456 kts 253°
2026-04-26 19:45 18.49339 15.88238 34014 ft 455 kts 254°
2026-04-26 19:46 18.47387 15.81925 34012 ft 457 kts 254°
2026-04-26 19:46 18.45408 15.75554 34009 ft 456 kts 254°
2026-04-26 19:47 18.43767 15.70284 34006 ft 456 kts 253°
2026-04-26 19:47 18.41458 15.62893 34006 ft 457 kts 253°
2026-04-26 19:48 18.39474 15.56550 34005 ft 458 kts 254°
2026-04-26 19:48 18.37480 15.50192 34004 ft 457 kts 254°
2026-04-26 19:49 18.35496 15.43869 34002 ft 458 kts 254°
2026-04-26 19:49 18.33501 15.37520 34001 ft 457 kts 254°
2026-04-26 19:50 18.31500 15.31161 34010 ft 459 kts 253°
2026-04-26 19:50 18.29498 15.24808 34013 ft 457 kts 253°
2026-04-26 19:51 18.27507 15.18497 34010 ft 458 kts 253°
2026-04-26 19:51 18.25494 15.12128 34007 ft 458 kts 253°
2026-04-26 19:52 18.23488 15.05785 34005 ft 459 kts 253°
2026-04-26 19:52 18.21468 14.99407 33999 ft 460 kts 253°
2026-04-26 19:53 18.19447 14.93035 33999 ft 459 kts 253°
2026-04-26 19:53 18.17432 14.86691 33990 ft 459 kts 253°
2026-04-26 19:54 18.15254 14.80392 34000 ft 459 kts 248°
2026-04-26 19:54 18.12609 14.74263 34002 ft 461 kts 248°
2026-04-26 19:55 18.09960 14.68152 34007 ft 461 kts 248°
2026-04-26 19:55 18.07312 14.62047 34007 ft 461 kts 248°
2026-04-26 19:56 18.04642 14.55897 34005 ft 462 kts 248°
2026-04-26 19:56 18.01992 14.49798 34007 ft 460 kts 248°
2026-04-26 19:57 17.99315 14.43644 34009 ft 461 kts 248°
2026-04-26 19:57 17.96657 14.37538 34007 ft 461 kts 248°
2026-04-26 19:58 17.93983 14.31401 34017 ft 463 kts 247°
2026-04-26 19:58 17.91312 14.25278 34017 ft 463 kts 247°
2026-04-26 19:59 17.88630 14.19136 34019 ft 464 kts 248°
2026-04-26 19:59 17.85961 14.13032 34017 ft 462 kts 247°
2026-04-26 20:00 17.83275 14.06893 34024 ft 462 kts 247°
2026-04-26 20:00 17.80594 14.00772 34023 ft 462 kts 247°
2026-04-26 20:01 17.77910 13.94651 34023 ft 463 kts 247°
2026-04-26 20:01 17.75221 13.88524 34023 ft 462 kts 247°
2026-04-26 20:02 17.72536 13.82413 34025 ft 462 kts 247°
2026-04-26 20:02 17.70303 13.77335 34021 ft 462 kts 247°
2026-04-26 20:03 17.67169 13.70216 34020 ft 463 kts 247°
2026-04-26 20:03 17.64456 13.64061 34020 ft 462 kts 247°
2026-04-26 20:04 17.61767 13.57964 34024 ft 463 kts 247°
2026-04-26 20:04 17.59072 13.51862 34024 ft 463 kts 247°
2026-04-26 20:05 17.56350 13.45702 34022 ft 464 kts 247°
2026-04-26 20:05 17.53643 13.39587 34027 ft 464 kts 247°
2026-04-26 20:06 17.50940 13.33482 34032 ft 463 kts 247°
2026-04-26 20:06 17.48215 13.27337 34034 ft 464 kts 247°
2026-04-26 20:07 17.45509 13.21238 34030 ft 464 kts 246°
2026-04-26 20:07 17.42793 13.15124 34030 ft 464 kts 246°
2026-04-26 20:08 17.40069 13.08998 34031 ft 464 kts 246°
2026-04-26 20:08 17.37348 13.02885 34028 ft 463 kts 246°
2026-04-26 20:09 17.34620 12.96763 34030 ft 466 kts 247°
2026-04-26 20:09 17.31893 12.90650 34028 ft 465 kts 246°
2026-04-26 20:10 17.29143 12.84489 34025 ft 466 kts 246°
2026-04-26 20:10 17.26408 12.78369 34023 ft 465 kts 246°
2026-04-26 20:11 17.23669 12.72245 34022 ft 466 kts 246°
2026-04-26 20:12 17.19554 12.63057 34017 ft 466 kts 246°
2026-04-26 20:12 17.16816 12.56950 34013 ft 466 kts 246°
2026-04-26 20:13 17.14055 12.50801 34011 ft 467 kts 246°
2026-04-26 20:13 17.11305 12.44679 34011 ft 467 kts 246°
2026-04-26 20:14 17.08557 12.38567 34008 ft 467 kts 246°
2026-04-26 20:14 17.05788 12.32416 34007 ft 468 kts 246°
2026-04-26 20:15 17.03011 12.26253 34001 ft 469 kts 246°
2026-04-26 20:15 17.00236 12.20101 34000 ft 469 kts 246°
2026-04-26 20:16 16.97468 12.13969 33998 ft 469 kts 246°
2026-04-26 20:16 16.94675 12.07787 33999 ft 469 kts 246°
2026-04-26 20:17 16.91900 12.01653 33993 ft 468 kts 246°
2026-04-26 20:17 16.89117 11.95506 33995 ft 469 kts 246°
2026-04-26 20:18 16.86331 11.89358 33995 ft 470 kts 246°
2026-04-26 20:18 16.83535 11.83195 33993 ft 469 kts 246°
2026-04-26 20:19 16.80735 11.77027 33993 ft 469 kts 246°
2026-04-26 20:19 16.77957 11.70916 33995 ft 469 kts 246°
2026-04-26 20:20 16.75164 11.64769 33999 ft 469 kts 246°
2026-04-26 20:20 16.72365 11.58614 34003 ft 469 kts 246°
2026-04-26 20:21 16.69577 11.52487 34007 ft 469 kts 246°
2026-04-26 20:21 16.66769 11.46327 34007 ft 469 kts 246°
2026-04-26 20:22 16.63981 11.40225 34004 ft 469 kts 246°
2026-04-26 20:22 16.61173 11.34083 34008 ft 469 kts 245°
2026-04-26 20:23 16.58370 11.27959 34013 ft 469 kts 245°
2026-04-26 20:23 16.55551 11.21805 34007 ft 469 kts 245°
2026-04-26 20:24 16.52738 11.15669 34002 ft 469 kts 245°
2026-04-26 20:24 16.49931 11.09552 34001 ft 469 kts 245°
2026-04-26 20:25 16.47125 11.03442 33998 ft 468 kts 245°
2026-04-26 20:25 16.44327 10.97356 33997 ft 468 kts 245°
2026-04-26 20:26 16.41509 10.91233 33996 ft 469 kts 245°
2026-04-26 20:26 16.38701 10.85135 33993 ft 469 kts 245°
2026-04-26 20:27 16.35883 10.79022 33993 ft 468 kts 245°
2026-04-26 20:27 16.33064 10.72913 33993 ft 469 kts 245°
2026-04-26 20:28 16.30240 10.66799 33992 ft 469 kts 245°
2026-04-26 20:28 16.27428 10.60715 33991 ft 469 kts 245°
2026-04-26 20:29 16.24597 10.54596 33990 ft 468 kts 245°
2026-04-26 20:29 16.21784 10.48524 33989 ft 467 kts 245°
2026-04-26 20:30 16.18957 10.42425 33989 ft 468 kts 245°
2026-04-26 20:30 16.16126 10.36321 33990 ft 467 kts 245°
2026-04-26 20:31 16.13316 10.30270 33994 ft 468 kts 245°
2026-04-26 20:31 16.10484 10.24176 33993 ft 467 kts 245°
2026-04-26 20:32 16.07657 10.18100 33992 ft 468 kts 245°
2026-04-26 20:32 16.04816 10.11998 33992 ft 468 kts 245°
2026-04-26 20:33 16.01988 10.05931 33996 ft 468 kts 245°
2026-04-26 20:33 15.99120 9.99839 33995 ft 469 kts 243°
2026-04-26 20:34 15.96061 9.93881 33994 ft 468 kts 243°
2026-04-26 20:34 15.92995 9.87920 33987 ft 468 kts 243°
2026-04-26 20:35 15.89927 9.81943 33979 ft 468 kts 243°
2026-04-26 20:35 15.86868 9.75978 33983 ft 469 kts 243°
2026-04-26 20:36 15.83812 9.70022 33990 ft 468 kts 243°
2026-04-26 20:36 15.80742 9.64039 33993 ft 468 kts 243°
2026-04-26 20:37 15.77673 9.58063 33994 ft 470 kts 243°
2026-04-26 20:37 15.74604 9.52091 33997 ft 470 kts 243°
2026-04-26 20:38 15.71527 9.46108 33994 ft 471 kts 243°
2026-04-26 20:38 15.68461 9.40152 33990 ft 470 kts 243°
2026-04-26 20:39 15.65377 9.34165 33988 ft 470 kts 243°
2026-04-26 20:39 15.62287 9.28171 33990 ft 471 kts 243°
2026-04-26 20:40 15.59194 9.22176 33988 ft 471 kts 243°
2026-04-26 20:40 15.56118 9.16220 33987 ft 470 kts 243°
2026-04-26 20:41 15.53032 9.10249 33987 ft 471 kts 243°
2026-04-26 20:41 15.49924 9.04240 33987 ft 471 kts 243°
2026-04-26 20:42 15.46838 8.98279 33986 ft 471 kts 243°
2026-04-26 20:42 15.43731 8.92282 33986 ft 471 kts 243°
2026-04-26 20:43 15.40647 8.86335 33987 ft 470 kts 242°
2026-04-26 20:43 15.37544 8.80355 33986 ft 471 kts 243°
2026-04-26 20:44 15.34444 8.74385 33985 ft 471 kts 243°
2026-04-26 20:44 15.31339 8.68412 33984 ft 470 kts 243°
2026-04-26 20:45 15.28242 8.62459 33982 ft 470 kts 243°
2026-04-26 20:45 15.25127 8.56476 33980 ft 470 kts 243°
2026-04-26 20:46 15.22023 8.50518 33978 ft 471 kts 243°
2026-04-26 20:46 15.18912 8.44553 33980 ft 471 kts 243°
2026-04-26 20:47 15.15799 8.38587 33980 ft 470 kts 243°
2026-04-26 20:47 15.12688 8.32631 33981 ft 472 kts 242°
2026-04-26 20:48 15.09593 8.26710 33974 ft 470 kts 242°
2026-04-26 20:48 15.06471 8.20743 33961 ft 470 kts 242°
2026-04-26 20:49 15.03366 8.14813 33965 ft 471 kts 242°
2026-04-26 20:49 15.00239 8.08846 33956 ft 469 kts 242°
2026-04-26 20:50 14.97143 8.02942 33950 ft 471 kts 242°
2026-04-26 20:50 14.94014 7.96981 33949 ft 470 kts 242°
2026-04-26 20:51 14.90897 7.91046 33952 ft 470 kts 242°
2026-04-26 20:51 14.87773 7.85104 33963 ft 471 kts 242°
2026-04-26 20:52 14.84647 7.79163 33973 ft 471 kts 242°
2026-04-26 20:52 14.81518 7.73219 33975 ft 472 kts 242°
2026-04-26 20:53 14.78371 7.67247 33972 ft 471 kts 242°
2026-04-26 20:53 14.75241 7.61312 33971 ft 472 kts 242°
2026-04-26 20:54 14.72100 7.55360 33967 ft 472 kts 242°
2026-04-26 20:54 14.68958 7.49411 33968 ft 471 kts 242°
2026-04-26 20:55 14.65819 7.43472 33965 ft 472 kts 242°
2026-04-26 20:55 14.62678 7.37534 33960 ft 472 kts 242°
2026-04-26 20:56 14.59548 7.31621 33970 ft 471 kts 242°
2026-04-26 20:56 14.56398 7.25674 33969 ft 471 kts 242°
2026-04-26 20:57 14.53246 7.19729 33968 ft 472 kts 242°
2026-04-26 20:57 14.50108 7.13815 33964 ft 473 kts 242°
2026-04-26 20:58 14.46937 7.07844 33962 ft 473 kts 242°
2026-04-26 20:58 14.43783 7.01907 33957 ft 473 kts 242°
2026-04-26 20:59 14.40614 6.95949 33955 ft 473 kts 242°
2026-04-26 20:59 14.37451 6.90004 33955 ft 473 kts 242°
2026-04-26 21:00 14.34297 6.84082 33950 ft 471 kts 242°
2026-04-26 21:00 14.31136 6.78153 33950 ft 473 kts 242°
2026-04-26 21:01 14.27961 6.72200 33951 ft 473 kts 242°
2026-04-26 21:01 14.24782 6.66244 33952 ft 474 kts 242°
2026-04-26 21:02 14.21603 6.60293 33947 ft 475 kts 242°
2026-04-26 21:02 14.18434 6.54365 33952 ft 475 kts 242°
2026-04-26 21:03 14.15238 6.48390 33963 ft 474 kts 242°
2026-04-26 21:03 14.12072 6.42477 33963 ft 473 kts 241°
2026-04-26 21:04 14.08874 6.36508 33954 ft 475 kts 241°
2026-04-26 21:04 14.05691 6.30570 33958 ft 476 kts 241°
2026-04-26 21:05 14.02485 6.24596 33959 ft 475 kts 241°
2026-04-26 21:05 13.99288 6.18641 33957 ft 476 kts 241°
2026-04-26 21:06 13.96101 6.12711 33953 ft 476 kts 241°
2026-04-26 21:06 13.92896 6.06749 33942 ft 476 kts 241°
2026-04-26 21:07 13.89674 6.00763 33931 ft 476 kts 241°
2026-04-26 21:07 13.86456 5.94787 33928 ft 477 kts 241°
2026-04-26 21:08 13.83241 5.88821 33932 ft 478 kts 241°
2026-04-26 21:08 13.80021 5.82849 33932 ft 478 kts 241°
2026-04-26 21:09 13.76812 5.76903 33930 ft 477 kts 241°
2026-04-26 21:09 13.73377 5.71097 33931 ft 476 kts 237°
2026-04-26 21:10 13.69827 5.65332 33926 ft 475 kts 238°
2026-04-26 21:10 13.66313 5.59601 33927 ft 475 kts 238°
2026-04-26 21:11 13.62788 5.53843 33933 ft 473 kts 238°
2026-04-26 21:11 13.59308 5.48153 33935 ft 475 kts 238°
2026-04-26 21:12 13.55771 5.42370 33930 ft 476 kts 238°
2026-04-26 21:12 13.52261 5.36633 33928 ft 474 kts 238°
2026-04-26 21:13 13.48758 5.30909 33926 ft 474 kts 237°
2026-04-26 21:13 13.45258 5.25193 33922 ft 474 kts 237°
2026-04-26 21:14 13.41745 5.19460 33919 ft 473 kts 237°
2026-04-26 21:14 13.38251 5.13761 33923 ft 474 kts 237°
2026-04-26 21:15 13.34756 5.08065 33925 ft 471 kts 237°
2026-04-26 21:15 13.31255 5.02361 33928 ft 473 kts 237°
2026-04-26 21:16 13.27753 4.96660 33926 ft 473 kts 237°
2026-04-26 21:16 13.24239 4.90944 33925 ft 474 kts 237°
2026-04-26 21:17 13.20730 4.85239 33926 ft 473 kts 237°
2026-04-26 21:17 13.17209 4.79518 33925 ft 473 kts 237°
2026-04-26 21:18 13.13708 4.73834 33922 ft 472 kts 237°
2026-04-26 21:18 13.10182 4.68114 33919 ft 473 kts 237°
2026-04-26 21:19 13.06681 4.62456 33920 ft 472 kts 237°
2026-04-26 21:19 13.03154 4.56771 33915 ft 472 kts 237°
2026-04-26 21:20 12.99646 4.51074 33911 ft 474 kts 237°
2026-04-26 21:20 12.96142 4.45385 33903 ft 473 kts 237°
2026-04-26 21:21 12.92620 4.39672 33898 ft 474 kts 237°
2026-04-26 21:21 12.89101 4.33968 33901 ft 473 kts 237°
2026-04-26 21:22 12.85576 4.28258 33908 ft 474 kts 237°
2026-04-26 21:22 12.82037 4.22529 33908 ft 473 kts 237°
2026-04-26 21:23 12.76756 4.13986 33907 ft 474 kts 237°
2026-04-26 21:23 12.73238 4.08300 33903 ft 474 kts 237°
2026-04-26 21:24 12.69709 4.02600 33898 ft 475 kts 237°
2026-04-26 21:24 12.66164 3.96878 33898 ft 475 kts 237°
2026-04-26 21:25 12.62635 3.91187 33898 ft 475 kts 237°
2026-04-26 21:25 12.59106 3.85496 33898 ft 474 kts 237°
2026-04-26 21:26 12.55564 3.79789 33898 ft 475 kts 237°
2026-04-26 21:26 12.52028 3.74096 33900 ft 475 kts 237°
2026-04-26 21:27 12.48482 3.68390 33905 ft 475 kts 237°
2026-04-26 21:27 12.44924 3.62668 33903 ft 477 kts 237°
2026-04-26 21:28 12.41226 3.57031 33904 ft 477 kts 236°
2026-04-26 21:28 12.37503 3.51416 33903 ft 476 kts 236°
2026-04-26 21:29 12.33807 3.45833 33902 ft 477 kts 236°
2026-04-26 21:29 12.30082 3.40206 33902 ft 477 kts 236°
2026-04-26 21:30 12.26342 3.34558 33907 ft 478 kts 236°
2026-04-26 21:30 12.22628 3.28951 33917 ft 479 kts 236°
2026-04-26 21:31 12.18868 3.23276 33917 ft 480 kts 236°
2026-04-26 21:31 12.15116 3.17616 33921 ft 481 kts 236°
2026-04-26 21:32 12.11362 3.11956 33921 ft 480 kts 236°
2026-04-26 21:32 12.07628 3.06330 33926 ft 481 kts 236°
2026-04-26 21:33 12.03873 3.00674 33932 ft 482 kts 236°
2026-04-26 21:33 12.00094 2.94987 33934 ft 482 kts 236°
2026-04-26 21:34 11.96337 2.89335 33933 ft 482 kts 236°
2026-04-26 21:34 11.92553 2.83647 33934 ft 482 kts 236°
2026-04-26 21:35 11.88795 2.78000 33936 ft 482 kts 236°
2026-04-26 21:35 11.85032 2.72349 33938 ft 480 kts 236°
2026-04-26 21:36 11.81919 2.67676 33939 ft 480 kts 236°
2026-04-26 21:36 11.77515 2.61070 33944 ft 481 kts 236°
2026-04-26 21:37 11.73752 2.55429 33948 ft 481 kts 236°
2026-04-26 21:37 11.70002 2.49811 33950 ft 480 kts 236°
2026-04-26 21:38 11.66235 2.44170 33952 ft 481 kts 236°
2026-04-26 21:38 11.62455 2.38513 33957 ft 481 kts 236°
2026-04-26 21:39 11.58694 2.32888 33958 ft 479 kts 236°
2026-04-26 21:39 11.54951 2.27293 33963 ft 480 kts 236°
2026-04-26 21:40 11.51183 2.21663 33966 ft 478 kts 236°
2026-04-26 21:40 11.47432 2.16062 33968 ft 478 kts 236°
2026-04-26 21:41 11.43677 2.10458 33967 ft 479 kts 236°
2026-04-26 21:41 11.39930 2.04869 33969 ft 479 kts 235°
2026-04-26 21:42 11.36168 1.99262 33966 ft 480 kts 235°
2026-04-26 21:42 11.32392 1.93636 33964 ft 478 kts 235°
2026-04-26 21:43 11.28655 1.88072 33963 ft 479 kts 235°
2026-04-26 21:43 11.24884 1.82460 33961 ft 480 kts 235°
2026-04-26 21:44 11.21114 1.76852 33957 ft 480 kts 235°
2026-04-26 21:44 11.17365 1.71277 33957 ft 479 kts 235°
2026-04-26 21:45 11.13602 1.65686 33954 ft 480 kts 235°
2026-04-26 21:45 11.09819 1.60069 33950 ft 479 kts 235°
2026-04-26 21:46 11.06035 1.54453 33957 ft 481 kts 235°
2026-04-26 21:46 11.02286 1.48891 33952 ft 481 kts 235°
2026-04-26 21:47 10.98530 1.43227 33950 ft 482 kts 237°
2026-04-26 21:47 10.95002 1.37433 33952 ft 483 kts 237°
2026-04-26 21:48 10.91471 1.31642 33948 ft 482 kts 237°
2026-04-26 21:48 10.87928 1.25854 33951 ft 483 kts 237°
2026-04-26 21:49 10.84382 1.20072 33946 ft 481 kts 237°
2026-04-26 21:49 10.80828 1.14285 33945 ft 483 kts 237°
2026-04-26 21:50 10.77845 1.09434 33943 ft 484 kts 237°
2026-04-26 21:50 10.73693 1.02686 33938 ft 483 kts 237°
2026-04-26 21:51 10.70139 0.96913 33946 ft 483 kts 237°
2026-04-26 21:51 10.66561 0.91105 33944 ft 483 kts 237°
2026-04-26 21:52 10.63003 0.85334 33949 ft 483 kts 237°
2026-04-26 21:52 10.59420 0.79525 33947 ft 484 kts 237°
2026-04-26 21:53 10.55847 0.73735 33937 ft 484 kts 237°
2026-04-26 21:53 10.52268 0.67939 33941 ft 485 kts 237°
2026-04-26 21:54 10.48689 0.62145 33942 ft 485 kts 237°
2026-04-26 21:54 10.45111 0.56357 33941 ft 484 kts 237°
2026-04-26 21:55 10.41540 0.50583 33937 ft 485 kts 237°
2026-04-26 21:55 10.37942 0.44767 33937 ft 485 kts 237°
2026-04-26 21:56 10.34368 0.38994 33939 ft 486 kts 237°
2026-04-26 21:56 10.30748 0.33150 33944 ft 486 kts 237°
2026-04-26 21:57 10.27158 0.27357 33944 ft 486 kts 237°
2026-04-26 21:57 10.23564 0.21560 33945 ft 486 kts 237°
2026-04-26 21:58 10.19956 0.15743 33943 ft 486 kts 237°
2026-04-26 21:58 10.16354 0.09941 33945 ft 486 kts 237°
2026-04-26 21:59 10.12758 0.04149 33949 ft 487 kts 237°
2026-04-26 21:59 10.09153 -0.01653 33947 ft 487 kts 237°
2026-04-26 22:00 10.05539 -0.07466 33948 ft 488 kts 237°
2026-04-26 22:00 10.01900 -0.13318 33941 ft 487 kts 237°
2026-04-26 22:01 9.98295 -0.19110 33949 ft 487 kts 237°
2026-04-26 22:01 9.94687 -0.24906 33949 ft 486 kts 237°
2026-04-26 22:02 9.91679 -0.29736 33950 ft 486 kts 237°
2026-04-26 22:02 9.87464 -0.36500 33959 ft 487 kts 237°
2026-04-26 22:03 9.83868 -0.42268 33955 ft 487 kts 237°
2026-04-26 22:03 9.80241 -0.48083 33947 ft 487 kts 237°
2026-04-26 22:04 9.76624 -0.53878 33943 ft 486 kts 237°
2026-04-26 22:04 9.73015 -0.59658 33940 ft 486 kts 237°
2026-04-26 22:05 9.69397 -0.65449 33935 ft 486 kts 236°
2026-04-26 22:05 9.65786 -0.71227 33932 ft 486 kts 236°
2026-04-26 22:06 9.62162 -0.77022 33927 ft 487 kts 236°
2026-04-26 22:06 9.58539 -0.82813 33924 ft 486 kts 236°
2026-04-26 22:07 9.54771 -0.88494 33924 ft 486 kts 232°
2026-04-26 22:07 9.51439 -0.93111 33922 ft 485 kts 233°
2026-04-26 22:08 9.46805 -0.99561 33924 ft 486 kts 233°
2026-04-26 22:08 9.42840 -1.05099 33918 ft 486 kts 233°
2026-04-26 22:09 9.38896 -1.10614 33924 ft 485 kts 233°
2026-04-26 22:09 9.34923 -1.16173 33922 ft 486 kts 233°
2026-04-26 22:10 9.30962 -1.21716 33927 ft 487 kts 233°
2026-04-26 22:10 9.26978 -1.27290 33930 ft 487 kts 233°
2026-04-26 22:11 9.23029 -1.32815 33925 ft 487 kts 233°
2026-04-26 22:11 9.19061 -1.38364 33924 ft 486 kts 232°
2026-04-26 22:12 9.15081 -1.43927 33929 ft 486 kts 232°
2026-04-26 22:12 9.11113 -1.49470 33930 ft 487 kts 233°
2026-04-26 22:13 9.07151 -1.55004 33930 ft 487 kts 232°
2026-04-26 22:13 9.03167 -1.60566 33934 ft 487 kts 233°
2026-04-26 22:14 8.99188 -1.66119 33936 ft 487 kts 232°
2026-04-26 22:14 8.95229 -1.71640 33937 ft 488 kts 232°
2026-04-26 22:15 8.91220 -1.77231 33937 ft 488 kts 232°
2026-04-26 22:15 8.87261 -1.82749 33943 ft 487 kts 232°
2026-04-26 22:16 8.83281 -1.88293 33941 ft 487 kts 232°
2026-04-26 22:16 8.79296 -1.93842 33942 ft 486 kts 232°
2026-04-26 22:17 8.75309 -1.99391 33942 ft 488 kts 232°
2026-04-26 22:17 8.71343 -2.04909 33943 ft 488 kts 232°
2026-04-26 22:18 8.67327 -2.10494 33950 ft 488 kts 232°
2026-04-26 22:18 8.63344 -2.16032 33956 ft 488 kts 232°
2026-04-26 22:19 8.59366 -2.21559 33961 ft 487 kts 232°
2026-04-26 22:19 8.55388 -2.27084 33963 ft 487 kts 233°
2026-04-26 22:20 8.52049 -2.31721 33963 ft 488 kts 232°
2026-04-26 22:20 8.47392 -2.38185 33964 ft 488 kts 233°
2026-04-26 22:21 8.43384 -2.43745 33966 ft 489 kts 232°
2026-04-26 22:21 8.39375 -2.49306 33972 ft 490 kts 233°
2026-04-26 22:22 8.35371 -2.54855 33974 ft 491 kts 233°
2026-04-26 22:22 8.31359 -2.60411 33979 ft 491 kts 233°
2026-04-26 22:23 8.27343 -2.65970 33981 ft 491 kts 232°
2026-04-26 22:23 8.23297 -2.71570 33982 ft 491 kts 232°
2026-04-26 22:24 8.19280 -2.77127 33985 ft 492 kts 233°
2026-04-26 22:24 8.15255 -2.82692 33988 ft 490 kts 233°
2026-04-26 22:25 8.11235 -2.88248 33991 ft 490 kts 233°
2026-04-26 22:25 8.07212 -2.93806 33991 ft 490 kts 233°
2026-04-26 22:26 8.03176 -2.99314 33986 ft 488 kts 229°
2026-04-26 22:26 7.98664 -3.04490 33991 ft 489 kts 227°
2026-04-26 22:27 7.94136 -3.09607 33988 ft 490 kts 227°
2026-04-26 22:27 7.89616 -3.14717 33983 ft 489 kts 227°
2026-04-26 22:28 7.85061 -3.19869 33985 ft 489 kts 227°
2026-04-26 22:28 7.80553 -3.24966 33981 ft 489 kts 227°
2026-04-26 22:29 7.76014 -3.30098 33979 ft 488 kts 227°
2026-04-26 22:29 7.71495 -3.35205 33973 ft 488 kts 227°
2026-04-26 22:30 7.66971 -3.40316 33971 ft 488 kts 227°
2026-04-26 22:30 7.62457 -3.45415 33968 ft 487 kts 227°
2026-04-26 22:31 7.57938 -3.50516 33965 ft 487 kts 227°
2026-04-26 22:31 7.53439 -3.55595 33966 ft 487 kts 227°
2026-04-26 22:32 7.48944 -3.60666 33966 ft 486 kts 227°
2026-04-26 22:32 7.44425 -3.65763 33967 ft 485 kts 227°
2026-04-26 22:33 7.37686 -3.73359 33969 ft 485 kts 227°
2026-04-26 22:34 7.33182 -3.78435 33970 ft 487 kts 228°
2026-04-26 22:34 7.28670 -3.83518 33971 ft 486 kts 227°
2026-04-26 22:35 7.24150 -3.88608 33970 ft 487 kts 228°
2026-04-26 22:35 7.19637 -3.93689 33971 ft 485 kts 227°
2026-04-26 22:36 7.15168 -3.98718 33973 ft 485 kts 228°
2026-04-26 22:36 7.10641 -4.03811 33973 ft 486 kts 228°
2026-04-26 22:37 7.06162 -4.08849 33972 ft 484 kts 228°
2026-04-26 22:37 7.01643 -4.13930 33971 ft 486 kts 228°
2026-04-26 22:38 6.97133 -4.18999 33969 ft 486 kts 228°
2026-04-26 22:38 6.92642 -4.24045 33967 ft 486 kts 228°
2026-04-26 22:39 6.88128 -4.29115 33967 ft 484 kts 228°
2026-04-26 22:39 6.83603 -4.34197 33965 ft 485 kts 228°
2026-04-26 22:40 6.79096 -4.39256 33964 ft 485 kts 228°
2026-04-26 22:40 6.74594 -4.44308 33963 ft 486 kts 228°
2026-04-26 22:41 6.70101 -4.49349 33963 ft 483 kts 228°
2026-04-26 22:41 6.65604 -4.54394 33962 ft 485 kts 228°
2026-04-26 22:42 6.61108 -4.59435 33963 ft 484 kts 228°
2026-04-26 22:42 6.56603 -4.64486 33957 ft 485 kts 228°
2026-04-26 22:43 6.52112 -4.69520 33952 ft 483 kts 228°
2026-04-26 22:43 6.47606 -4.74569 33949 ft 485 kts 228°
2026-04-26 22:44 6.43134 -4.79578 33952 ft 483 kts 228°
2026-04-26 22:44 6.38606 -4.84649 33953 ft 484 kts 228°
2026-04-26 22:45 6.34119 -4.89672 33956 ft 484 kts 228°
2026-04-26 22:45 6.29628 -4.94700 33949 ft 484 kts 228°
2026-04-26 22:46 6.25133 -4.99729 33941 ft 486 kts 228°
2026-04-26 22:46 6.20599 -5.04800 33942 ft 484 kts 228°
2026-04-26 22:47 6.16118 -5.09812 33945 ft 485 kts 228°
2026-04-26 22:47 6.11604 -5.14856 33946 ft 482 kts 228°
2026-04-26 22:48 6.07137 -5.19846 33949 ft 484 kts 228°
2026-04-26 22:48 6.02616 -5.24894 33953 ft 484 kts 228°
2026-04-26 22:49 5.98118 -5.29915 33957 ft 485 kts 228°
2026-04-26 22:49 5.93612 -5.34943 33958 ft 484 kts 227°
2026-04-26 22:50 5.89082 -5.40000 33963 ft 485 kts 228°
2026-04-26 22:50 5.84577 -5.45028 33963 ft 483 kts 228°
2026-04-26 22:51 5.80070 -5.50057 33966 ft 484 kts 228°
2026-04-26 22:51 5.75552 -5.55097 33968 ft 485 kts 228°
2026-04-26 22:52 5.71067 -5.60099 33969 ft 483 kts 228°
2026-04-26 22:52 5.66572 -5.65112 33970 ft 483 kts 227°
2026-04-26 22:53 5.62056 -5.70146 33972 ft 484 kts 227°
2026-04-26 22:53 5.57543 -5.75176 33973 ft 484 kts 227°
2026-04-26 22:54 5.53063 -5.80146 33971 ft 482 kts 227°
2026-04-26 22:54 5.48501 -5.85178 33965 ft 485 kts 227°
2026-04-26 22:55 5.43982 -5.90163 33964 ft 484 kts 227°
2026-04-26 22:55 5.39471 -5.95140 33965 ft 484 kts 227°
2026-04-26 22:56 5.34938 -6.00141 33961 ft 482 kts 227°
2026-04-26 22:56 5.30427 -6.05115 33959 ft 483 kts 227°
2026-04-26 22:57 5.25906 -6.10100 33967 ft 482 kts 227°
2026-04-26 22:57 5.21379 -6.15090 33966 ft 483 kts 227°
2026-04-26 22:58 5.16859 -6.20072 33964 ft 484 kts 227°
2026-04-26 22:58 5.12320 -6.25073 33968 ft 483 kts 227°
2026-04-26 22:59 5.07799 -6.30054 33963 ft 481 kts 228°
2026-04-26 22:59 5.03292 -6.35017 33966 ft 483 kts 227°
2026-04-26 23:00 4.98776 -6.39990 33961 ft 481 kts 228°
2026-04-26 23:00 4.94257 -6.44965 33960 ft 483 kts 228°
2026-04-26 23:01 4.89745 -6.49931 33961 ft 483 kts 228°
2026-04-26 23:01 4.85216 -6.54915 33962 ft 482 kts 227°
2026-04-26 23:02 4.80681 -6.59905 33959 ft 484 kts 227°
2026-04-26 23:02 4.76181 -6.64854 33959 ft 482 kts 227°
2026-04-26 23:03 4.71684 -6.69862 33962 ft 481 kts 228°
2026-04-26 23:03 4.67219 -6.74866 33961 ft 482 kts 228°
2026-04-26 23:04 4.62741 -6.79882 33959 ft 481 kts 228°
2026-04-26 23:04 4.58267 -6.84891 33955 ft 484 kts 228°
2026-04-26 23:05 4.53776 -6.89916 33954 ft 481 kts 228°
2026-04-26 23:05 4.49306 -6.94915 33951 ft 482 kts 228°
2026-04-26 23:06 4.44820 -6.99932 33950 ft 482 kts 228°
2026-04-26 23:06 4.40354 -7.04926 33952 ft 482 kts 228°
2026-04-26 23:07 4.35858 -7.09951 33953 ft 483 kts 228°
2026-04-26 23:07 4.31383 -7.14953 33953 ft 484 kts 228°
2026-04-26 23:08 4.26904 -7.19958 33952 ft 482 kts 228°
2026-04-26 23:08 4.22415 -7.24973 33950 ft 484 kts 228°
2026-04-26 23:09 4.17920 -7.29992 33950 ft 485 kts 228°
2026-04-26 23:09 4.13436 -7.35001 33951 ft 484 kts 228°
2026-04-26 23:10 4.08912 -7.40052 33950 ft 482 kts 228°
2026-04-26 23:10 4.04426 -7.45059 33947 ft 485 kts 228°
2026-04-26 23:11 3.99934 -7.50073 33941 ft 484 kts 228°
2026-04-26 23:11 3.95809 -7.55365 33933 ft 483 kts 233°
2026-04-26 23:12 3.91789 -7.60800 33929 ft 482 kts 233°
2026-04-26 23:12 3.87782 -7.66174 33932 ft 484 kts 233°
2026-04-26 23:13 3.83744 -7.71564 33931 ft 483 kts 233°
2026-04-26 23:13 3.79704 -7.76943 33932 ft 484 kts 233°
2026-04-26 23:14 3.75672 -7.82304 33932 ft 485 kts 233°
2026-04-26 23:14 3.71621 -7.87685 33930 ft 483 kts 233°
2026-04-26 23:15 3.67575 -7.93057 33931 ft 483 kts 233°
2026-04-26 23:15 3.63521 -7.98438 33930 ft 483 kts 233°
2026-04-26 23:16 3.59470 -8.03813 33932 ft 482 kts 233°
2026-04-26 23:16 3.55452 -8.09143 33943 ft 483 kts 233°
2026-04-26 23:17 3.51395 -8.14523 33948 ft 483 kts 233°
2026-04-26 23:17 3.47335 -8.19907 33949 ft 483 kts 233°
2026-04-26 23:18 3.43293 -8.25267 33950 ft 484 kts 233°
2026-04-26 23:18 3.39227 -8.30656 33950 ft 484 kts 233°
2026-04-26 23:19 3.35186 -8.36012 33947 ft 483 kts 233°
2026-04-26 23:19 3.31147 -8.41365 33949 ft 486 kts 233°
2026-04-26 23:20 3.27069 -8.46768 33951 ft 485 kts 233°
2026-04-26 23:20 3.22998 -8.52161 33948 ft 486 kts 233°
2026-04-26 23:21 3.18917 -8.57567 33950 ft 486 kts 233°
2026-04-26 23:21 3.14842 -8.62964 33950 ft 487 kts 233°
2026-04-26 23:22 3.10763 -8.68366 33951 ft 486 kts 233°
2026-04-26 23:22 3.06683 -8.73767 33947 ft 489 kts 233°
2026-04-26 23:23 3.02573 -8.79208 33949 ft 491 kts 233°
2026-04-26 23:23 2.98477 -8.84630 33950 ft 490 kts 233°
2026-04-26 23:24 2.94384 -8.90047 33949 ft 489 kts 234°
2026-04-26 23:24 2.90260 -8.95504 33952 ft 490 kts 233°
2026-04-26 23:25 2.86144 -9.00949 33949 ft 490 kts 233°
2026-04-26 23:25 2.82013 -9.06416 33948 ft 489 kts 233°
2026-04-26 23:26 2.77940 -9.11803 33950 ft 489 kts 233°
2026-04-26 23:26 2.73823 -9.17248 33951 ft 489 kts 233°
2026-04-26 23:27 2.69725 -9.22668 33951 ft 490 kts 233°
2026-04-26 23:27 2.65609 -9.28109 33952 ft 489 kts 233°
2026-04-26 23:28 2.61499 -9.33542 33950 ft 489 kts 233°
2026-04-26 23:28 2.57392 -9.38972 33951 ft 489 kts 233°
2026-04-26 23:29 2.53301 -9.44379 33952 ft 488 kts 233°
2026-04-26 23:29 2.49196 -9.49805 33949 ft 489 kts 233°
2026-04-26 23:30 2.45084 -9.55239 33953 ft 490 kts 233°
2026-04-26 23:30 2.40966 -9.60679 33951 ft 490 kts 233°
2026-04-26 23:31 2.36864 -9.66099 33951 ft 492 kts 233°
2026-04-26 23:31 2.32733 -9.71546 33949 ft 490 kts 232°
2026-04-26 23:32 2.27866 -9.76326 33953 ft 491 kts 221°
2026-04-26 23:32 2.22690 -9.80766 33950 ft 493 kts 221°
2026-04-26 23:33 2.17450 -9.85258 33951 ft 494 kts 221°
2026-04-26 23:33 2.12217 -9.89744 33943 ft 495 kts 221°
2026-04-26 23:34 2.06974 -9.94241 33932 ft 496 kts 221°
2026-04-26 23:34 2.01724 -9.98743 33931 ft 495 kts 221°
2026-04-26 23:35 1.96491 -10.03231 33933 ft 497 kts 221°
2026-04-26 23:35 1.91256 -10.07719 33934 ft 494 kts 221°
2026-04-26 23:36 1.86031 -10.12200 33931 ft 496 kts 221°
2026-04-26 23:36 1.80795 -10.16690 33932 ft 494 kts 221°
2026-04-26 23:37 1.75568 -10.21171 33931 ft 493 kts 221°
2026-04-26 23:37 1.70386 -10.25614 33931 ft 494 kts 221°
2026-04-26 23:38 1.65182 -10.30075 33929 ft 491 kts 221°
2026-04-26 23:38 1.59973 -10.34540 33931 ft 490 kts 221°
2026-04-26 23:39 1.54829 -10.38949 33931 ft 488 kts 221°
2026-04-26 23:39 1.49679 -10.43363 33931 ft 488 kts 221°
2026-04-26 23:40 1.44525 -10.47780 33928 ft 487 kts 221°
2026-04-26 23:40 1.39374 -10.52194 33942 ft 488 kts 221°
2026-04-26 23:41 1.34230 -10.56602 33953 ft 486 kts 221°
2026-04-26 23:41 1.29069 -10.61024 33956 ft 486 kts 221°
2026-04-26 23:42 1.23945 -10.65414 33950 ft 484 kts 221°
2026-04-26 23:42 1.16259 -10.71999 33953 ft 485 kts 221°
2026-04-26 23:43 1.11148 -10.76378 33956 ft 485 kts 221°
2026-04-26 23:43 1.06045 -10.80750 33948 ft 485 kts 222°
2026-04-26 23:44 1.00903 -10.85154 33955 ft 485 kts 221°
2026-04-26 23:44 0.95787 -10.89536 33948 ft 485 kts 222°
2026-04-26 23:45 0.90646 -10.93940 33953 ft 485 kts 222°
2026-04-26 23:45 0.85550 -10.98304 33949 ft 484 kts 222°
2026-04-26 23:46 0.80417 -11.02702 33951 ft 484 kts 221°
2026-04-26 23:46 0.75304 -11.07080 33947 ft 485 kts 221°
2026-04-26 23:47 0.70163 -11.11483 33947 ft 486 kts 221°
2026-04-26 23:47 0.65034 -11.15876 33949 ft 486 kts 221°
2026-04-26 23:48 0.59921 -11.20254 33949 ft 485 kts 221°
2026-04-26 23:48 0.54760 -11.24674 33947 ft 485 kts 222°
2026-04-26 23:49 0.49668 -11.29034 33951 ft 485 kts 221°
2026-04-26 23:49 0.44523 -11.33440 33952 ft 486 kts 222°
2026-04-26 23:50 0.39394 -11.37832 33947 ft 485 kts 221°
2026-04-26 23:50 0.34248 -11.42238 33948 ft 487 kts 221°
2026-04-26 23:51 0.29113 -11.46635 33950 ft 487 kts 221°
2026-04-26 23:51 0.23985 -11.51026 33950 ft 487 kts 221°
2026-04-26 23:52 0.18823 -11.55446 33948 ft 486 kts 221°
2026-04-26 23:52 0.13681 -11.59849 33946 ft 485 kts 221°
2026-04-26 23:53 0.08581 -11.64216 33947 ft 486 kts 221°
2026-04-26 23:53 0.03441 -11.68617 33952 ft 485 kts 221°
2026-04-26 23:54 -0.01710 -11.73027 33954 ft 486 kts 221°
2026-04-26 23:54 -0.06832 -11.77412 33953 ft 486 kts 221°
2026-04-26 23:55 -0.11979 -11.81819 33949 ft 485 kts 221°
2026-04-26 23:55 -0.17106 -11.86210 33946 ft 485 kts 221°
2026-04-26 23:56 -0.22221 -11.90589 33954 ft 485 kts 221°
2026-04-26 23:56 -0.27336 -11.94969 33952 ft 483 kts 221°
2026-04-26 23:57 -0.32453 -11.99351 33946 ft 485 kts 221°
2026-04-26 23:57 -0.37571 -12.03734 33940 ft 485 kts 221°
2026-04-26 23:58 -0.42703 -12.08128 33935 ft 485 kts 221°
2026-04-26 23:58 -0.47838 -12.12525 33931 ft 485 kts 221°
2026-04-26 23:59 -0.52975 -12.16924 33931 ft 485 kts 221°
2026-04-26 23:59 -0.58096 -12.21309 33935 ft 483 kts 221°
2026-04-27 00:00 -0.63171 -12.25656 33930 ft 483 kts 221°
2026-04-27 00:00 -0.68283 -12.30033 33929 ft 483 kts 221°
2026-04-27 00:01 -0.73405 -12.34419 33932 ft 483 kts 221°
2026-04-27 00:01 -0.78517 -12.38798 33930 ft 483 kts 221°
2026-04-27 00:02 -0.83621 -12.43169 33938 ft 482 kts 221°
2026-04-27 00:02 -0.88708 -12.47526 33945 ft 481 kts 221°
2026-04-27 00:03 -0.93766 -12.51858 33949 ft 480 kts 221°
2026-04-27 00:03 -0.98856 -12.56218 33949 ft 481 kts 221°
2026-04-27 00:04 -1.03941 -12.60574 33950 ft 481 kts 221°
2026-04-27 00:04 -1.08999 -12.64907 33951 ft 480 kts 221°
2026-04-27 00:05 -1.14067 -12.69249 33951 ft 480 kts 221°
2026-04-27 00:05 -1.19161 -12.73613 33952 ft 481 kts 221°
2026-04-27 00:06 -1.24212 -12.77941 33952 ft 481 kts 221°
2026-04-27 00:06 -1.29295 -12.82296 33949 ft 482 kts 221°
2026-04-27 00:07 -1.34411 -12.86680 33948 ft 483 kts 221°
2026-04-27 00:07 -1.39492 -12.91033 33950 ft 482 kts 221°
2026-04-27 00:08 -1.44612 -12.95421 33950 ft 482 kts 221°
2026-04-27 00:08 -1.49693 -12.99775 33951 ft 481 kts 221°
2026-04-27 00:09 -1.54789 -13.04143 33950 ft 483 kts 221°
2026-04-27 00:09 -1.59875 -13.08502 33950 ft 480 kts 221°
2026-04-27 00:10 -1.64955 -13.12857 33950 ft 480 kts 221°
2026-04-27 00:10 -1.70037 -13.17213 33951 ft 483 kts 221°
2026-04-27 00:11 -1.75136 -13.21584 33951 ft 483 kts 221°
2026-04-27 00:11 -1.80216 -13.25940 33951 ft 482 kts 221°
2026-04-27 00:12 -1.85346 -13.30338 33950 ft 482 kts 220°
2026-04-27 00:12 -1.90443 -13.34709 33951 ft 484 kts 221°
2026-04-27 00:13 -1.95523 -13.39066 33951 ft 483 kts 220°
2026-04-27 00:13 -2.00627 -13.43443 33951 ft 483 kts 220°
2026-04-27 00:14 -2.05742 -13.47830 33951 ft 484 kts 220°
2026-04-27 00:14 -2.10841 -13.52204 33951 ft 484 kts 220°
2026-04-27 00:15 -2.15962 -13.56597 33952 ft 483 kts 220°
2026-04-27 00:15 -2.21052 -13.60964 33951 ft 483 kts 220°
2026-04-27 00:16 -2.26165 -13.65351 33952 ft 482 kts 220°
2026-04-27 00:16 -2.31251 -13.69715 33952 ft 481 kts 220°
2026-04-27 00:17 -2.36302 -13.74051 33951 ft 481 kts 220°
2026-04-27 00:17 -2.41390 -13.78417 33950 ft 483 kts 220°
2026-04-27 00:18 -2.46515 -13.82816 33951 ft 482 kts 220°
2026-04-27 00:18 -2.51606 -13.87186 33951 ft 483 kts 220°
2026-04-27 00:19 -2.56677 -13.91540 33951 ft 482 kts 220°
2026-04-27 00:19 -2.61757 -13.95902 33952 ft 481 kts 220°
2026-04-27 00:20 -2.66848 -14.00273 33950 ft 482 kts 220°
2026-04-27 00:20 -2.71936 -14.04643 33951 ft 483 kts 220°
2026-04-27 00:21 -2.77024 -14.09014 33944 ft 482 kts 220°
2026-04-27 00:21 -2.82140 -14.13408 33935 ft 483 kts 220°
2026-04-27 00:22 -2.87214 -14.17768 33930 ft 483 kts 220°
2026-04-27 00:22 -2.92303 -14.22140 33929 ft 483 kts 220°
2026-04-27 00:23 -2.97431 -14.26547 33930 ft 483 kts 220°
2026-04-27 00:23 -3.02499 -14.30903 33929 ft 481 kts 220°
2026-04-27 00:24 -3.07581 -14.35271 33930 ft 483 kts 220°
2026-04-27 00:24 -3.12704 -14.39675 33931 ft 483 kts 220°
2026-04-27 00:25 -3.17803 -14.44059 33931 ft 484 kts 220°
2026-04-27 00:25 -3.22913 -14.48453 33933 ft 483 kts 220°
2026-04-27 00:26 -3.27994 -14.52823 33932 ft 484 kts 220°
2026-04-27 00:26 -3.33117 -14.57230 33931 ft 483 kts 220°
2026-04-27 00:27 -3.38196 -14.61599 33933 ft 484 kts 220°
2026-04-27 00:27 -3.43321 -14.66009 33933 ft 485 kts 220°
2026-04-27 00:28 -3.48462 -14.70432 33936 ft 486 kts 220°
2026-04-27 00:28 -3.53567 -14.74826 33939 ft 486 kts 220°
2026-04-27 00:29 -3.58706 -14.79250 33940 ft 485 kts 220°
2026-04-27 00:29 -3.63836 -14.83666 33942 ft 485 kts 220°
2026-04-27 00:30 -3.68922 -14.88045 33943 ft 485 kts 220°
2026-04-27 00:30 -3.74047 -14.92459 33945 ft 485 kts 220°
2026-04-27 00:31 -3.79171 -14.96872 33947 ft 485 kts 220°
2026-04-27 00:31 -3.84304 -15.01293 33949 ft 486 kts 220°
2026-04-27 00:32 -3.89403 -15.05687 33948 ft 485 kts 220°
2026-04-27 00:32 -3.94518 -15.10095 33951 ft 484 kts 220°
2026-04-27 00:33 -3.99626 -15.14497 33950 ft 484 kts 220°
2026-04-27 00:33 -4.04757 -15.18921 33949 ft 484 kts 220°
2026-04-27 00:34 -4.09839 -15.23302 33950 ft 484 kts 220°
2026-04-27 00:34 -4.14945 -15.27705 33951 ft 483 kts 220°
2026-04-27 00:35 -4.20069 -15.32125 33951 ft 483 kts 220°
2026-04-27 00:35 -4.25146 -15.36504 33951 ft 483 kts 220°
2026-04-27 00:36 -4.30238 -15.40897 33952 ft 483 kts 220°
2026-04-27 00:36 -4.35368 -15.45325 33950 ft 483 kts 220°
2026-04-27 00:37 -4.40443 -15.49704 33950 ft 482 kts 220°
2026-04-27 00:37 -4.45510 -15.54079 33949 ft 482 kts 220°
2026-04-27 00:38 -4.50608 -15.58481 33950 ft 482 kts 220°
2026-04-27 00:38 -4.55678 -15.62859 33950 ft 482 kts 220°
2026-04-27 00:39 -4.60740 -15.67231 33950 ft 481 kts 220°
2026-04-27 00:39 -4.65834 -15.71632 33948 ft 482 kts 220°
2026-04-27 00:40 -4.70892 -15.76004 33950 ft 482 kts 220°
2026-04-27 00:40 -4.75973 -15.80395 33951 ft 481 kts 220°
2026-04-27 00:41 -4.81067 -15.84798 33949 ft 481 kts 220°
2026-04-27 00:41 -4.86132 -15.89178 33946 ft 480 kts 220°
2026-04-27 00:42 -4.91186 -15.93548 33948 ft 480 kts 220°
2026-04-27 00:42 -4.96210 -15.97894 33948 ft 479 kts 220°
2026-04-27 00:43 -5.01290 -16.02289 33946 ft 480 kts 220°
2026-04-27 00:43 -5.06346 -16.06664 33935 ft 480 kts 220°
2026-04-27 00:44 -5.11396 -16.11035 33933 ft 481 kts 220°
2026-04-27 00:44 -5.16485 -16.15441 33931 ft 482 kts 220°
2026-04-27 00:45 -5.21569 -16.19844 33932 ft 482 kts 220°
2026-04-27 00:45 -5.26640 -16.24235 33934 ft 482 kts 220°
2026-04-27 00:46 -5.31694 -16.28614 33936 ft 481 kts 220°
2026-04-27 00:46 -5.36754 -16.32998 33937 ft 482 kts 220°
2026-04-27 00:47 -5.41846 -16.37412 33938 ft 482 kts 220°
2026-04-27 00:47 -5.46911 -16.41802 33940 ft 482 kts 220°
2026-04-27 00:48 -5.52000 -16.46215 33944 ft 482 kts 220°
2026-04-27 00:48 -5.57089 -16.50629 33944 ft 482 kts 220°
2026-04-27 00:49 -5.62133 -16.55005 33947 ft 481 kts 220°
2026-04-27 00:49 -5.67212 -16.59412 33949 ft 481 kts 220°
2026-04-27 00:50 -5.74793 -16.65992 33950 ft 482 kts 220°
2026-04-27 00:51 -5.79865 -16.70396 33951 ft 482 kts 220°
2026-04-27 00:51 -5.84509 -16.75267 33944 ft 482 kts 234°
2026-04-27 00:52 -5.88278 -16.80806 33951 ft 482 kts 236°
2026-04-27 00:52 -5.92037 -16.86403 33952 ft 481 kts 236°
2026-04-27 00:53 -5.95754 -16.91938 33953 ft 481 kts 236°
2026-04-27 00:53 -5.99476 -16.97483 33950 ft 480 kts 236°
2026-04-27 00:54 -6.03229 -17.03074 33950 ft 481 kts 236°
2026-04-27 00:54 -6.06955 -17.08627 33951 ft 480 kts 236°
2026-04-27 00:55 -6.10662 -17.14154 33950 ft 477 kts 236°
2026-04-27 00:55 -6.14390 -17.19712 33951 ft 477 kts 236°
2026-04-27 00:56 -6.18076 -17.25211 33951 ft 476 kts 236°
2026-04-27 00:56 -6.21800 -17.30692 33952 ft 475 kts 236°
2026-04-27 00:57 -6.25538 -17.36183 33951 ft 475 kts 236°
2026-04-27 00:57 -6.29260 -17.41655 33953 ft 476 kts 236°
2026-04-27 00:58 -6.32986 -17.47136 33951 ft 475 kts 236°
2026-04-27 00:58 -6.36715 -17.52623 33950 ft 474 kts 236°
2026-04-27 00:59 -6.40408 -17.58060 33952 ft 473 kts 236°
2026-04-27 00:59 -6.44102 -17.63501 33950 ft 474 kts 236°
2026-04-27 01:00 -6.47827 -17.68988 33950 ft 472 kts 236°
2026-04-27 01:00 -6.51539 -17.74457 33953 ft 473 kts 236°
2026-04-27 01:01 -6.55222 -17.79887 33951 ft 471 kts 236°
2026-04-27 01:01 -6.58901 -17.85311 33952 ft 469 kts 236°
2026-04-27 01:02 -6.62567 -17.90718 33952 ft 469 kts 236°
2026-04-27 01:02 -6.66256 -17.96161 33950 ft 470 kts 236°
2026-04-27 01:03 -6.69928 -18.01581 33952 ft 470 kts 236°
2026-04-27 01:03 -6.73611 -18.07018 33952 ft 470 kts 236°
2026-04-27 01:04 -6.77282 -18.12439 33951 ft 470 kts 236°
2026-04-27 01:04 -6.80948 -18.17855 33949 ft 469 kts 236°
2026-04-27 01:05 -6.84609 -18.23265 33949 ft 469 kts 236°
2026-04-27 01:05 -6.88295 -18.28713 33946 ft 469 kts 236°
2026-04-27 01:06 -6.91944 -18.34109 33947 ft 468 kts 236°
2026-04-27 01:06 -6.95632 -18.39564 33950 ft 469 kts 236°
2026-04-27 01:07 -6.99273 -18.44952 33956 ft 468 kts 236°
2026-04-27 01:07 -7.02961 -18.50411 33959 ft 469 kts 236°
2026-04-27 01:08 -7.06621 -18.55829 33964 ft 469 kts 236°
2026-04-27 01:08 -7.10275 -18.61241 33960 ft 468 kts 236°
2026-04-27 01:09 -7.13924 -18.66647 33967 ft 469 kts 236°
2026-04-27 01:09 -7.17589 -18.72080 33971 ft 468 kts 236°
2026-04-27 01:10 -7.21252 -18.77510 33965 ft 468 kts 236°
2026-04-27 01:10 -7.24905 -18.82928 33960 ft 468 kts 236°
2026-04-27 01:11 -7.28558 -18.88348 33955 ft 468 kts 236°
2026-04-27 01:11 -7.32191 -18.93738 33962 ft 468 kts 236°
2026-04-27 01:12 -7.35849 -18.99169 33958 ft 467 kts 236°
2026-04-27 01:12 -7.39486 -19.04571 33961 ft 468 kts 236°
2026-04-27 01:13 -7.43141 -19.10001 33963 ft 467 kts 236°
2026-04-27 01:13 -7.46805 -19.15445 33956 ft 468 kts 236°
2026-04-27 01:14 -7.50433 -19.20839 33962 ft 467 kts 236°
2026-04-27 01:14 -7.54072 -19.26251 33961 ft 468 kts 236°
2026-04-27 01:15 -7.57722 -19.31681 33964 ft 468 kts 236°
2026-04-27 01:15 -7.61368 -19.37107 33964 ft 468 kts 236°
2026-04-27 01:16 -7.65022 -19.42547 33962 ft 467 kts 236°
2026-04-27 01:16 -7.68650 -19.47950 33958 ft 468 kts 236°
2026-04-27 01:17 -7.72287 -19.53368 33957 ft 467 kts 236°
2026-04-27 01:17 -7.75934 -19.58785 33954 ft 467 kts 236°
2026-04-27 01:18 -7.79601 -19.64231 33947 ft 468 kts 236°
2026-04-27 01:18 -7.83242 -19.69641 33951 ft 469 kts 236°
2026-04-27 01:19 -7.86916 -19.75103 33950 ft 470 kts 236°
2026-04-27 01:19 -7.90596 -19.80576 33953 ft 470 kts 236°
2026-04-27 01:20 -7.94251 -19.86013 33950 ft 471 kts 236°
2026-04-27 01:20 -7.97928 -19.91485 33950 ft 470 kts 236°
2026-04-27 01:21 -8.01584 -19.96929 33949 ft 470 kts 236°
2026-04-27 01:21 -8.05258 -20.02401 33949 ft 470 kts 236°
2026-04-27 01:22 -8.08921 -20.07859 33950 ft 471 kts 236°
2026-04-27 01:22 -8.12581 -20.13314 33952 ft 471 kts 236°
2026-04-27 01:23 -8.16272 -20.18818 33957 ft 471 kts 236°
2026-04-27 01:23 -8.19925 -20.24267 33955 ft 470 kts 236°
2026-04-27 01:24 -8.23595 -20.29743 33956 ft 470 kts 236°
2026-04-27 01:24 -8.27235 -20.35177 33957 ft 471 kts 236°
2026-04-27 01:25 -8.30896 -20.40644 33957 ft 470 kts 236°
2026-04-27 01:25 -8.34565 -20.46126 33958 ft 470 kts 236°
2026-04-27 01:26 -8.38228 -20.51600 33958 ft 471 kts 236°
2026-04-27 01:26 -8.41889 -20.57074 33964 ft 469 kts 236°
2026-04-27 01:27 -8.45541 -20.62536 33970 ft 471 kts 236°
2026-04-27 01:27 -8.49195 -20.68004 33974 ft 470 kts 236°
2026-04-27 01:28 -8.52861 -20.73491 33972 ft 470 kts 236°
2026-04-27 01:28 -8.56494 -20.78933 33971 ft 472 kts 236°
2026-04-27 01:29 -8.60165 -20.84432 33972 ft 472 kts 235°
2026-04-27 01:29 -8.63838 -20.89937 33973 ft 471 kts 235°
2026-04-27 01:30 -8.67503 -20.95432 33971 ft 472 kts 235°
2026-04-27 01:30 -8.71152 -21.00906 33972 ft 471 kts 235°
2026-04-27 01:31 -8.74817 -21.06406 33971 ft 472 kts 235°
2026-04-27 01:31 -8.78486 -21.11913 33971 ft 473 kts 235°
2026-04-27 01:32 -8.82144 -21.17408 33971 ft 472 kts 235°
2026-04-27 01:32 -8.85822 -21.22933 33971 ft 474 kts 235°
2026-04-27 01:33 -8.89517 -21.28487 33971 ft 474 kts 235°
2026-04-27 01:33 -8.93189 -21.34008 33971 ft 473 kts 235°
2026-04-27 01:34 -8.96855 -21.39524 33971 ft 474 kts 235°
2026-04-27 01:34 -9.00532 -21.45059 33971 ft 474 kts 235°
2026-04-27 01:35 -9.04186 -21.50559 33971 ft 475 kts 235°
2026-04-27 01:35 -9.07884 -21.56130 33970 ft 475 kts 235°
2026-04-27 01:36 -9.11552 -21.61658 33974 ft 475 kts 235°
2026-04-27 01:36 -9.15216 -21.67181 33973 ft 474 kts 235°
2026-04-27 01:37 -9.18890 -21.72734 33973 ft 474 kts 236°
2026-04-27 01:37 -9.22556 -21.78289 33973 ft 474 kts 235°
2026-04-27 01:38 -9.26209 -21.83825 33972 ft 475 kts 235°
2026-04-27 01:38 -9.29875 -21.89385 33973 ft 474 kts 235°
2026-04-27 01:39 -9.33540 -21.94944 33973 ft 474 kts 235°
2026-04-27 01:39 -9.37179 -22.00466 33972 ft 473 kts 235°
2026-04-27 01:40 -9.40818 -22.05990 33971 ft 473 kts 235°
2026-04-27 01:40 -9.44480 -22.11552 33971 ft 473 kts 235°
2026-04-27 01:41 -9.48141 -22.17114 33970 ft 473 kts 235°
2026-04-27 01:41 -9.51787 -22.22657 33977 ft 474 kts 235°
2026-04-27 01:42 -9.55424 -22.28189 33980 ft 475 kts 235°
2026-04-27 01:42 -9.59070 -22.33736 33981 ft 474 kts 235°
2026-04-27 01:43 -9.62725 -22.39300 33979 ft 474 kts 235°
2026-04-27 01:43 -9.66378 -22.44864 33978 ft 473 kts 235°
2026-04-27 01:44 -9.69998 -22.50380 33978 ft 473 kts 236°
2026-04-27 01:44 -9.73649 -22.55944 33977 ft 472 kts 236°
2026-04-27 01:45 -9.77293 -22.61501 33978 ft 473 kts 235°
2026-04-27 01:45 -9.80928 -22.67048 33976 ft 473 kts 236°
2026-04-27 01:46 -9.84549 -22.72575 33976 ft 473 kts 236°
2026-04-27 01:46 -9.88187 -22.78131 33973 ft 473 kts 236°
2026-04-27 01:47 -9.91839 -22.83712 33972 ft 474 kts 236°
2026-04-27 01:47 -9.95468 -22.89259 33980 ft 472 kts 236°
2026-04-27 01:48 -9.99075 -22.94776 33989 ft 471 kts 236°
2026-04-27 01:48 -10.02693 -23.00312 33991 ft 472 kts 236°
2026-04-27 01:49 -10.06340 -23.05894 33995 ft 473 kts 236°
2026-04-27 01:49 -10.09954 -23.11429 33991 ft 472 kts 236°
2026-04-27 01:50 -10.13584 -23.16991 33993 ft 472 kts 236°
2026-04-27 01:50 -10.17195 -23.22527 33995 ft 472 kts 236°
2026-04-27 01:51 -10.20810 -23.28071 33996 ft 472 kts 236°
2026-04-27 01:51 -10.24434 -23.33634 33992 ft 472 kts 236°
2026-04-27 01:52 -10.28073 -23.39221 33990 ft 473 kts 236°
2026-04-27 01:52 -10.31675 -23.44753 33988 ft 473 kts 236°
2026-04-27 01:53 -10.35308 -23.50337 33985 ft 473 kts 236°
2026-04-27 01:53 -10.38928 -23.55902 33985 ft 474 kts 236°
2026-04-27 01:54 -10.42550 -23.61474 33984 ft 473 kts 235°
2026-04-27 01:54 -10.46177 -23.67056 33984 ft 473 kts 236°
2026-04-27 01:55 -10.49813 -23.72656 33984 ft 473 kts 236°
2026-04-27 01:55 -10.53422 -23.78216 33987 ft 473 kts 236°
2026-04-27 01:56 -10.58844 -23.86575 33987 ft 474 kts 236°
2026-04-27 01:56 -10.62487 -23.92193 33985 ft 474 kts 236°
2026-04-27 01:57 -10.66103 -23.97774 33987 ft 474 kts 236°
2026-04-27 01:57 -10.69708 -24.03342 33985 ft 473 kts 236°
2026-04-27 01:58 -10.73333 -24.08942 33985 ft 474 kts 236°
2026-04-27 01:58 -10.76953 -24.14538 33988 ft 473 kts 236°
2026-04-27 01:59 -10.80575 -24.20138 33985 ft 475 kts 236°
2026-04-27 01:59 -10.84206 -24.25757 33984 ft 475 kts 236°
2026-04-27 02:00 -10.87820 -24.31353 33982 ft 475 kts 236°
2026-04-27 02:00 -10.91431 -24.36946 33982 ft 475 kts 236°
2026-04-27 02:01 -10.95069 -24.42584 33981 ft 475 kts 236°
2026-04-27 02:01 -10.98675 -24.48175 33983 ft 475 kts 236°
2026-04-27 02:02 -11.02305 -24.53808 33981 ft 475 kts 236°
2026-04-27 02:02 -11.05932 -24.59438 33978 ft 475 kts 236°
2026-04-27 02:03 -11.09543 -24.65045 33970 ft 475 kts 236°
2026-04-27 02:03 -11.13168 -24.70678 33970 ft 475 kts 236°
2026-04-27 02:04 -11.16760 -24.76264 33972 ft 475 kts 236°
2026-04-27 02:04 -11.20374 -24.81885 33971 ft 475 kts 236°
2026-04-27 02:05 -11.23996 -24.87523 33975 ft 474 kts 236°
2026-04-27 02:05 -11.27615 -24.93159 33976 ft 475 kts 236°
2026-04-27 02:06 -11.31226 -24.98784 33975 ft 475 kts 236°
2026-04-27 02:06 -11.34820 -25.04388 33978 ft 474 kts 236°
2026-04-27 02:07 -11.38407 -25.09983 33980 ft 474 kts 236°
2026-04-27 02:07 -11.42003 -25.15594 33978 ft 472 kts 236°
2026-04-27 02:08 -11.45602 -25.21216 33981 ft 472 kts 236°
2026-04-27 02:08 -11.49170 -25.26790 33980 ft 471 kts 236°
2026-04-27 02:09 -11.52750 -25.32385 33981 ft 471 kts 236°
2026-04-27 02:09 -11.56321 -25.37972 33983 ft 470 kts 236°
2026-04-27 02:10 -11.59875 -25.43534 33986 ft 471 kts 236°
2026-04-27 02:10 -11.63455 -25.49140 33986 ft 469 kts 236°
2026-04-27 02:11 -11.67008 -25.54707 33983 ft 469 kts 236°
2026-04-27 02:11 -11.70557 -25.60270 33984 ft 470 kts 236°
2026-04-27 02:12 -11.74117 -25.65853 33986 ft 468 kts 236°
2026-04-27 02:12 -11.77656 -25.71408 33986 ft 468 kts 236°
2026-04-27 02:13 -11.81186 -25.76951 33987 ft 467 kts 236°
2026-04-27 02:13 -11.84731 -25.82519 33981 ft 468 kts 236°
2026-04-27 02:14 -11.88270 -25.88084 33986 ft 467 kts 236°
2026-04-27 02:14 -11.91798 -25.93633 33990 ft 468 kts 236°
2026-04-27 02:15 -11.95356 -25.99232 33992 ft 467 kts 236°
2026-04-27 02:15 -11.98887 -26.04792 34007 ft 467 kts 236°
2026-04-27 02:16 -12.02400 -26.10328 34004 ft 467 kts 236°
2026-04-27 02:16 -12.05933 -26.15898 33995 ft 466 kts 237°
2026-04-27 02:17 -12.09450 -26.21445 33985 ft 467 kts 236°
2026-04-27 02:17 -12.12971 -26.27002 33991 ft 466 kts 236°
2026-04-27 02:18 -12.16471 -26.32531 33992 ft 466 kts 236°
2026-04-27 02:18 -12.19986 -26.38085 33990 ft 465 kts 236°
2026-04-27 02:19 -12.23511 -26.43657 33993 ft 464 kts 236°
2026-04-27 02:19 -12.26987 -26.49157 33996 ft 464 kts 236°
2026-04-27 02:20 -12.30503 -26.54722 33998 ft 464 kts 236°
2026-04-27 02:20 -12.33995 -26.60254 34000 ft 464 kts 236°
2026-04-27 02:21 -12.37481 -26.65777 34002 ft 465 kts 237°
2026-04-27 02:21 -12.40974 -26.71316 34000 ft 464 kts 237°
2026-04-27 02:22 -12.44488 -26.76893 34002 ft 463 kts 237°
2026-04-27 02:22 -12.47966 -26.82416 34005 ft 463 kts 236°
2026-04-27 02:23 -12.51445 -26.87944 34002 ft 463 kts 237°
2026-04-27 02:23 -12.54921 -26.93469 34001 ft 462 kts 236°
2026-04-27 02:24 -12.58413 -26.99023 34003 ft 463 kts 236°
2026-04-27 02:24 -12.61887 -27.04554 34003 ft 462 kts 237°
2026-04-27 02:25 -12.65353 -27.10074 34005 ft 463 kts 237°
2026-04-27 02:25 -12.68842 -27.15633 34005 ft 463 kts 237°
2026-04-27 02:26 -12.72310 -27.21164 34003 ft 463 kts 236°
2026-04-27 02:26 -12.75777 -27.26695 34003 ft 462 kts 236°
2026-04-27 02:27 -12.79247 -27.32236 34002 ft 463 kts 236°
2026-04-27 02:27 -12.82728 -27.37796 34001 ft 463 kts 236°
2026-04-27 02:28 -12.86196 -27.43339 33999 ft 462 kts 236°
2026-04-27 02:28 -12.89654 -27.48869 34000 ft 463 kts 236°
2026-04-27 02:29 -12.93104 -27.54392 33994 ft 462 kts 236°
2026-04-27 02:29 -12.96575 -27.59950 33992 ft 463 kts 236°
2026-04-27 02:30 -13.00046 -27.65512 33994 ft 462 kts 237°
2026-04-27 02:30 -13.03511 -27.71068 33991 ft 463 kts 237°
2026-04-27 02:31 -13.06972 -27.76620 33993 ft 462 kts 237°
2026-04-27 02:31 -13.10424 -27.82163 33995 ft 463 kts 237°
2026-04-27 02:32 -13.13894 -27.87738 33997 ft 463 kts 236°
2026-04-27 02:32 -13.17347 -27.93288 33996 ft 463 kts 236°
2026-04-27 02:33 -13.20810 -27.98857 33998 ft 463 kts 237°
2026-04-27 02:33 -13.24268 -28.04423 33997 ft 463 kts 236°
2026-04-27 02:34 -13.27712 -28.09970 33997 ft 462 kts 237°
2026-04-27 02:34 -13.31181 -28.15559 33997 ft 463 kts 236°
2026-04-27 02:35 -13.34626 -28.21114 33998 ft 463 kts 236°
2026-04-27 02:35 -13.38091 -28.26705 33998 ft 464 kts 236°
2026-04-27 02:36 -13.41546 -28.32283 34001 ft 463 kts 236°
2026-04-27 02:36 -13.44995 -28.37856 34001 ft 462 kts 236°
2026-04-27 02:37 -13.48435 -28.43417 34001 ft 463 kts 236°
2026-04-27 02:37 -13.51888 -28.49002 34004 ft 463 kts 236°
2026-04-27 02:38 -13.55326 -28.54568 34003 ft 463 kts 236°
2026-04-27 02:38 -13.58784 -28.60169 34004 ft 464 kts 236°
2026-04-27 02:39 -13.62220 -28.65737 34005 ft 463 kts 236°
2026-04-27 02:39 -13.65666 -28.71327 34006 ft 464 kts 236°
2026-04-27 02:40 -13.69112 -28.76920 34001 ft 464 kts 236°
2026-04-27 02:40 -13.72580 -28.82551 33995 ft 465 kts 236°
2026-04-27 02:41 -13.76037 -28.88170 33993 ft 468 kts 237°
2026-04-27 02:41 -13.79576 -28.93923 34356 ft 482 kts 237°
2026-04-27 02:42 -13.81348 -28.96807 35065 ft 478 kts 237°
2026-04-27 02:42 -13.83112 -28.99678 35833 ft 473 kts 237°
2026-04-27 02:42 -13.84870 -29.02541 35987 ft 475 kts 237°
2026-04-27 02:42 -13.86630 -29.05408 35992 ft 472 kts 237°
2026-04-27 02:43 -13.90098 -29.11059 35992 ft 470 kts 237°
2026-04-27 02:43 -13.93591 -29.16755 35994 ft 470 kts 237°
2026-04-27 02:44 -13.97062 -29.22418 35996 ft 470 kts 237°
2026-04-27 02:44 -14.00545 -29.28106 35999 ft 471 kts 237°
2026-04-27 02:45 -14.04030 -29.33799 35992 ft 471 kts 237°
2026-04-27 02:45 -14.07506 -29.39483 35994 ft 470 kts 237°
2026-04-27 02:46 -14.10996 -29.45194 35997 ft 471 kts 237°
2026-04-27 02:46 -14.14478 -29.50896 35995 ft 470 kts 236°
2026-04-27 02:47 -14.17947 -29.56579 35996 ft 470 kts 236°
2026-04-27 02:47 -14.21426 -29.62282 35999 ft 470 kts 236°
2026-04-27 02:48 -14.24901 -29.67984 35999 ft 470 kts 237°
2026-04-27 02:48 -14.28360 -29.73663 36000 ft 470 kts 237°
2026-04-27 02:49 -14.31842 -29.79385 36000 ft 470 kts 237°
2026-04-27 02:49 -14.35312 -29.85090 35999 ft 471 kts 237°
2026-04-27 02:50 -14.38780 -29.90797 36000 ft 470 kts 237°
2026-04-27 02:50 -14.42243 -29.96498 36000 ft 470 kts 237°
2026-04-27 02:51 -14.45721 -30.02229 36002 ft 469 kts 237°
2026-04-27 02:51 -14.49169 -30.07913 36003 ft 469 kts 237°
2026-04-27 02:52 -14.52628 -30.13621 36000 ft 469 kts 237°
2026-04-27 02:52 -14.56068 -30.19301 36002 ft 469 kts 237°
2026-04-27 02:53 -14.59527 -30.25016 36006 ft 469 kts 237°
2026-04-27 02:53 -14.62989 -30.30741 36003 ft 470 kts 237°
2026-04-27 02:54 -14.66442 -30.36455 36007 ft 469 kts 237°
2026-04-27 02:54 -14.69906 -30.42191 36007 ft 470 kts 237°
2026-04-27 02:55 -14.73354 -30.47904 36007 ft 469 kts 237°
2026-04-27 02:55 -14.76798 -30.53616 36006 ft 468 kts 237°
2026-04-27 02:56 -14.80240 -30.59328 36004 ft 469 kts 237°
2026-04-27 02:56 -14.83667 -30.65020 36005 ft 469 kts 237°
2026-04-27 02:57 -14.87109 -30.70740 36008 ft 469 kts 237°
2026-04-27 02:57 -14.90555 -30.76471 36008 ft 470 kts 237°
2026-04-27 02:58 -14.94009 -30.82219 36010 ft 469 kts 237°
2026-04-27 02:58 -14.97437 -30.87930 36010 ft 469 kts 237°
2026-04-27 02:59 -15.00866 -30.93645 36015 ft 469 kts 237°
2026-04-27 02:59 -15.04285 -30.99349 36025 ft 469 kts 237°
2026-04-27 03:00 -15.07713 -31.05070 36031 ft 469 kts 237°
2026-04-27 03:00 -15.11147 -31.10806 36035 ft 469 kts 237°
2026-04-27 03:01 -15.14585 -31.16553 36034 ft 469 kts 237°
2026-04-27 03:01 -15.18000 -31.22267 36035 ft 469 kts 237°
2026-04-27 03:02 -15.21446 -31.28037 36034 ft 468 kts 237°
2026-04-27 03:02 -15.24850 -31.33741 36034 ft 468 kts 237°
2026-04-27 03:03 -15.29965 -31.42319 36033 ft 468 kts 237°
2026-04-27 03:04 -15.33384 -31.48059 36033 ft 468 kts 237°
2026-04-27 03:04 -15.36797 -31.53792 36033 ft 467 kts 237°
2026-04-27 03:05 -15.40187 -31.59492 36033 ft 468 kts 237°
2026-04-27 03:05 -15.43608 -31.65247 36032 ft 467 kts 237°
2026-04-27 03:06 -15.47000 -31.70959 36033 ft 467 kts 238°
2026-04-27 03:06 -15.50405 -31.76696 36024 ft 469 kts 238°
2026-04-27 03:07 -15.53824 -31.82460 36013 ft 470 kts 238°
2026-04-27 03:07 -15.57241 -31.88227 36013 ft 470 kts 238°
2026-04-27 03:08 -15.60647 -31.93980 36015 ft 469 kts 238°
2026-04-27 03:08 -15.64076 -31.99778 36013 ft 469 kts 238°
2026-04-27 03:09 -15.67456 -32.05497 36012 ft 468 kts 238°
2026-04-27 03:09 -15.70860 -32.11262 36013 ft 468 kts 238°
2026-04-27 03:10 -15.74255 -32.17016 36012 ft 467 kts 238°
2026-04-27 03:10 -15.77655 -32.22781 36012 ft 469 kts 238°
2026-04-27 03:11 -15.81050 -32.28545 36011 ft 469 kts 238°
2026-04-27 03:11 -15.84453 -32.34325 36013 ft 469 kts 238°
2026-04-27 03:12 -15.87848 -32.40097 36011 ft 469 kts 238°
2026-04-27 03:12 -15.91243 -32.45872 36012 ft 469 kts 238°
2026-04-27 03:13 -15.94635 -32.51648 36010 ft 468 kts 238°
2026-04-27 03:13 -15.98002 -32.57385 36011 ft 469 kts 238°
2026-04-27 03:14 -16.01417 -32.63210 36012 ft 470 kts 238°
2026-04-27 03:14 -16.04802 -32.68986 36015 ft 469 kts 238°
2026-04-27 03:15 -16.08223 -32.74830 36013 ft 469 kts 238°
2026-04-27 03:15 -16.11588 -32.80584 36018 ft 469 kts 238°
2026-04-27 03:16 -16.14791 -32.86062 36019 ft 469 kts 238°
2026-04-27 03:16 -16.18164 -32.91838 36018 ft 468 kts 238°
2026-04-27 03:17 -16.21548 -32.97637 36018 ft 467 kts 238°
2026-04-27 03:17 -16.24935 -33.03445 36020 ft 469 kts 238°
2026-04-27 03:18 -16.28316 -33.09248 36017 ft 469 kts 238°
2026-04-27 03:18 -16.31716 -33.15090 36017 ft 468 kts 238°
2026-04-27 03:19 -16.35082 -33.20875 36018 ft 468 kts 238°
2026-04-27 03:19 -16.38453 -33.26675 36021 ft 468 kts 238°
2026-04-27 03:20 -16.41828 -33.32487 36022 ft 468 kts 238°
2026-04-27 03:20 -16.45200 -33.38298 36021 ft 467 kts 238°
2026-04-27 03:21 -16.48582 -33.44132 36021 ft 467 kts 238°
2026-04-27 03:21 -16.51917 -33.49888 36022 ft 468 kts 238°
2026-04-27 03:22 -16.55279 -33.55696 36022 ft 468 kts 238°
2026-04-27 03:22 -16.58631 -33.61491 36023 ft 469 kts 238°
2026-04-27 03:23 -16.62005 -33.67332 36029 ft 468 kts 239°
2026-04-27 03:23 -16.65351 -33.73125 36028 ft 468 kts 239°
2026-04-27 03:24 -16.68691 -33.78915 36027 ft 468 kts 239°
2026-04-27 03:24 -16.72028 -33.84704 36029 ft 467 kts 239°
2026-04-27 03:25 -16.75366 -33.90501 36028 ft 467 kts 239°
2026-04-27 03:25 -16.78717 -33.96323 36029 ft 467 kts 239°
2026-04-27 03:26 -16.82048 -34.02116 36030 ft 468 kts 239°
2026-04-27 03:26 -16.85396 -34.07944 36030 ft 468 kts 239°
2026-04-27 03:27 -16.88720 -34.13734 36029 ft 467 kts 239°
2026-04-27 03:27 -16.92061 -34.19560 36032 ft 467 kts 239°
2026-04-27 03:28 -16.95380 -34.25351 36032 ft 467 kts 239°
2026-04-27 03:28 -16.98707 -34.31163 36032 ft 466 kts 239°
2026-04-27 03:29 -17.02030 -34.36970 36031 ft 466 kts 239°
2026-04-27 03:29 -17.05346 -34.42771 36032 ft 466 kts 239°
2026-04-27 03:30 -17.08683 -34.48615 36031 ft 466 kts 239°
2026-04-27 03:30 -17.11983 -34.54398 36032 ft 465 kts 239°
2026-04-27 03:31 -17.15300 -34.60216 36034 ft 465 kts 239°
2026-04-27 03:31 -17.18606 -34.66021 36034 ft 465 kts 239°
2026-04-27 03:32 -17.21902 -34.71812 36037 ft 464 kts 239°
2026-04-27 03:32 -17.25214 -34.77636 36034 ft 465 kts 239°
2026-04-27 03:33 -17.28503 -34.83425 36033 ft 465 kts 239°
2026-04-27 03:33 -17.31800 -34.89232 36035 ft 464 kts 239°
2026-04-27 03:34 -17.35081 -34.95018 36034 ft 464 kts 239°
2026-04-27 03:34 -17.38372 -35.00823 36035 ft 465 kts 239°
2026-04-27 03:35 -17.41670 -35.06649 36035 ft 465 kts 239°
2026-04-27 03:35 -17.44957 -35.12459 36033 ft 464 kts 239°
2026-04-27 03:36 -17.48263 -35.18308 36033 ft 464 kts 239°
2026-04-27 03:36 -17.51541 -35.24112 36033 ft 465 kts 239°
2026-04-27 03:37 -17.54823 -35.29930 36032 ft 465 kts 239°
2026-04-27 03:37 -17.58095 -35.35733 36033 ft 465 kts 239°
2026-04-27 03:38 -17.61392 -35.41587 36033 ft 464 kts 239°
2026-04-27 03:38 -17.64666 -35.47406 36033 ft 465 kts 239°
2026-04-27 03:39 -17.67940 -35.53228 36032 ft 464 kts 239°
2026-04-27 03:39 -17.71208 -35.59046 36031 ft 465 kts 239°
2026-04-27 03:40 -17.74496 -35.64905 36031 ft 465 kts 239°
2026-04-27 03:40 -17.77768 -35.70740 36032 ft 465 kts 239°
2026-04-27 03:41 -17.81048 -35.76594 36028 ft 465 kts 239°
2026-04-27 03:41 -17.84324 -35.82447 36023 ft 465 kts 240°
2026-04-27 03:42 -17.87583 -35.88276 36014 ft 465 kts 240°
2026-04-27 03:42 -17.90843 -35.94111 36015 ft 466 kts 240°
2026-04-27 03:43 -17.94131 -36.00000 36014 ft 466 kts 240°
2026-04-27 03:43 -17.97405 -36.05870 36014 ft 466 kts 240°
2026-04-27 03:44 -18.00675 -36.11739 36013 ft 466 kts 240°
2026-04-27 03:44 -18.03922 -36.17572 36015 ft 465 kts 240°
2026-04-27 03:45 -18.07193 -36.23453 36013 ft 464 kts 240°
2026-04-27 03:45 -18.10447 -36.29308 36013 ft 464 kts 240°
2026-04-27 03:46 -18.13689 -36.35149 36014 ft 464 kts 240°
2026-04-27 03:46 -18.16944 -36.41016 36013 ft 465 kts 240°
2026-04-27 03:47 -18.20177 -36.46851 36013 ft 464 kts 240°
2026-04-27 03:47 -18.23432 -36.52730 36013 ft 464 kts 240°
2026-04-27 03:48 -18.26660 -36.58567 36012 ft 464 kts 240°
2026-04-27 03:48 -18.29907 -36.64442 36011 ft 464 kts 240°
2026-04-27 03:49 -18.33134 -36.70287 36014 ft 464 kts 240°
2026-04-27 03:49 -18.36373 -36.76158 36015 ft 464 kts 240°
2026-04-27 03:50 -18.39615 -36.82040 36014 ft 463 kts 240°
2026-04-27 03:50 -18.42861 -36.87937 36013 ft 463 kts 240°
2026-04-27 03:51 -18.46076 -36.93781 36013 ft 463 kts 240°
2026-04-27 03:51 -18.49312 -36.99670 36013 ft 463 kts 240°
2026-04-27 03:52 -18.52516 -37.05505 36012 ft 463 kts 240°
2026-04-27 03:52 -18.55737 -37.11377 36012 ft 463 kts 240°
2026-04-27 03:53 -18.58967 -37.17272 36010 ft 463 kts 240°
2026-04-27 03:53 -18.62175 -37.23132 36012 ft 463 kts 240°
2026-04-27 03:54 -18.65402 -37.29031 36012 ft 463 kts 240°
2026-04-27 03:54 -18.68611 -37.34904 36011 ft 462 kts 240°
2026-04-27 03:55 -18.71799 -37.40744 36011 ft 463 kts 240°
2026-04-27 03:55 -18.75006 -37.46624 36011 ft 463 kts 240°
2026-04-27 03:56 -18.78221 -37.52522 36012 ft 462 kts 240°
2026-04-27 03:56 -18.81414 -37.58390 36009 ft 463 kts 240°
2026-04-27 03:57 -18.84608 -37.64262 36011 ft 463 kts 240°
2026-04-27 03:57 -18.87827 -37.70188 36013 ft 462 kts 241°
2026-04-27 03:58 -18.91015 -37.76073 36011 ft 462 kts 241°
2026-04-27 03:58 -18.94187 -37.81932 36012 ft 462 kts 241°
2026-04-27 03:59 -18.97378 -37.87830 36013 ft 462 kts 241°
2026-04-27 03:59 -19.00561 -37.93722 36011 ft 463 kts 241°
2026-04-27 04:00 -19.03743 -37.99615 36012 ft 462 kts 241°
2026-04-27 04:00 -19.06923 -38.05512 36015 ft 462 kts 241°
2026-04-27 04:01 -19.10094 -38.11396 36010 ft 461 kts 241°
2026-04-27 04:01 -19.13285 -38.17324 36014 ft 461 kts 241°
2026-04-27 04:02 -19.16453 -38.23216 36012 ft 461 kts 241°
2026-04-27 04:02 -19.19608 -38.29088 36013 ft 461 kts 241°
2026-04-27 04:03 -19.22771 -38.34981 36011 ft 462 kts 241°
2026-04-27 04:03 -19.25944 -38.40899 36011 ft 462 kts 241°
2026-04-27 04:04 -19.29096 -38.46783 36011 ft 462 kts 241°
2026-04-27 04:04 -19.32274 -38.52722 36011 ft 461 kts 241°
2026-04-27 04:05 -19.35420 -38.58606 36011 ft 461 kts 241°
2026-04-27 04:05 -19.38574 -38.64511 36009 ft 461 kts 242°
2026-04-27 04:06 -19.41728 -38.70423 36014 ft 461 kts 242°
2026-04-27 04:06 -19.44882 -38.76340 36010 ft 461 kts 242°
2026-04-27 04:07 -19.49598 -38.85200 36002 ft 461 kts 242°
2026-04-27 04:07 -19.52759 -38.91145 35997 ft 461 kts 242°
2026-04-27 04:08 -19.55888 -38.97035 35993 ft 461 kts 242°
2026-04-27 04:08 -19.59038 -39.02972 35993 ft 460 kts 242°
2026-04-27 04:09 -19.62165 -39.08871 35993 ft 460 kts 242°
2026-04-27 04:09 -19.65304 -39.14800 35992 ft 460 kts 242°
2026-04-27 04:10 -19.68430 -39.20707 35992 ft 459 kts 242°
2026-04-27 04:10 -19.71554 -39.26619 35992 ft 459 kts 242°
2026-04-27 04:11 -19.74655 -39.32492 35991 ft 459 kts 242°
2026-04-27 04:11 -19.77801 -39.38458 35992 ft 460 kts 242°
2026-04-27 04:12 -19.80910 -39.44358 35991 ft 460 kts 242°
2026-04-27 04:12 -19.84029 -39.50284 35992 ft 461 kts 242°
2026-04-27 04:13 -19.87142 -39.56200 35993 ft 460 kts 242°
2026-04-27 04:13 -19.90276 -39.62146 35991 ft 459 kts 242°
2026-04-27 04:14 -19.93386 -39.68030 35995 ft 459 kts 242°
2026-04-27 04:14 -19.96589 -39.73933 35994 ft 459 kts 242°
2026-04-27 04:15 -19.99757 -39.79774 35993 ft 459 kts 242°
2026-04-27 04:15 -20.02953 -39.85679 35992 ft 459 kts 242°
2026-04-27 04:16 -20.06125 -39.91547 35994 ft 459 kts 242°
2026-04-27 04:16 -20.09310 -39.97446 35994 ft 458 kts 242°
2026-04-27 04:17 -20.12485 -40.03335 35994 ft 458 kts 242°
2026-04-27 04:17 -20.15648 -40.09206 35995 ft 458 kts 242°
2026-04-27 04:18 -20.18813 -40.15089 35996 ft 459 kts 242°
2026-04-27 04:18 -20.21989 -40.20997 35996 ft 458 kts 242°
2026-04-27 04:19 -20.25158 -40.26891 35992 ft 459 kts 241°
2026-04-27 04:19 -20.29061 -40.32259 36005 ft 462 kts 231°
2026-04-27 04:20 -20.33287 -40.37439 36008 ft 462 kts 231°
2026-04-27 04:20 -20.37490 -40.42599 36011 ft 461 kts 231°
2026-04-27 04:21 -20.41690 -40.47762 36009 ft 462 kts 231°
2026-04-27 04:21 -20.45912 -40.52958 36007 ft 462 kts 231°
2026-04-27 04:22 -20.50124 -40.58149 36009 ft 462 kts 231°
2026-04-27 04:22 -20.54325 -40.63331 36021 ft 462 kts 231°
2026-04-27 04:23 -20.58528 -40.68519 36032 ft 462 kts 232°
2026-04-27 04:23 -20.62732 -40.73715 36039 ft 462 kts 232°
2026-04-27 04:24 -20.66919 -40.78895 36038 ft 461 kts 232°
2026-04-27 04:24 -20.71137 -40.84080 36029 ft 462 kts 231°
2026-04-27 04:25 -20.75437 -40.89200 36027 ft 462 kts 231°
2026-04-27 04:25 -20.79723 -40.94311 36008 ft 462 kts 231°
2026-04-27 04:26 -20.84022 -40.99448 36008 ft 463 kts 231°
2026-04-27 04:26 -20.88287 -41.04553 36000 ft 462 kts 231°
2026-04-27 04:27 -20.92552 -41.09664 36003 ft 461 kts 231°
2026-04-27 04:27 -20.96831 -41.14796 36002 ft 460 kts 231°
2026-04-27 04:28 -21.01112 -41.19938 36036 ft 461 kts 231°
2026-04-27 04:28 -21.05358 -41.25041 36041 ft 461 kts 231°
2026-04-27 04:29 -21.09632 -41.30184 36025 ft 461 kts 231°
2026-04-27 04:29 -21.13919 -41.35347 36003 ft 461 kts 231°
2026-04-27 04:30 -21.18166 -41.40466 35989 ft 461 kts 231°
2026-04-27 04:30 -21.22424 -41.45604 35980 ft 460 kts 231°
2026-04-27 04:31 -21.26675 -41.50738 35974 ft 459 kts 231°
2026-04-27 04:31 -21.30921 -41.55870 35972 ft 459 kts 232°
2026-04-27 04:32 -21.35128 -41.60965 35976 ft 459 kts 232°
2026-04-27 04:32 -21.39363 -41.66100 35984 ft 459 kts 232°
2026-04-27 04:33 -21.43591 -41.71228 35989 ft 459 kts 232°
2026-04-27 04:33 -21.47833 -41.76380 35991 ft 458 kts 232°
2026-04-27 04:34 -21.52036 -41.81490 36003 ft 459 kts 232°
2026-04-27 04:34 -21.56262 -41.86631 36012 ft 459 kts 232°
2026-04-27 04:35 -21.60481 -41.91769 36012 ft 458 kts 232°
2026-04-27 04:35 -21.64712 -41.96927 36005 ft 458 kts 232°
2026-04-27 04:36 -21.68933 -42.02078 35994 ft 457 kts 232°
2026-04-27 04:36 -21.73134 -42.07209 35993 ft 458 kts 232°
2026-04-27 04:37 -21.77334 -42.12344 35996 ft 457 kts 232°
2026-04-27 04:37 -21.81523 -42.17470 36003 ft 458 kts 232°
2026-04-27 04:38 -21.83569 -42.20065 35803 ft 449 kts 237°
2026-04-27 04:38 -21.85291 -42.22861 34778 ft 450 kts 243°
2026-04-27 04:38 -21.86868 -42.25794 33430 ft 459 kts 244°
2026-04-27 04:38 -21.88452 -42.28766 32891 ft 451 kts 244°
2026-04-27 04:39 -21.89978 -42.31623 32877 ft 435 kts 244°
2026-04-27 04:39 -21.91520 -42.34520 32564 ft 453 kts 244°
2026-04-27 04:39 -21.93121 -42.37530 31710 ft 473 kts 243°
2026-04-27 04:39 -21.94750 -42.40583 30939 ft 473 kts 243°
2026-04-27 04:40 -21.96395 -42.43661 30347 ft 466 kts 243°
2026-04-27 04:40 -21.97980 -42.46627 29899 ft 459 kts 243°
2026-04-27 04:40 -21.99577 -42.49618 29386 ft 455 kts 243°
2026-04-27 04:40 -22.01139 -42.52548 28837 ft 454 kts 243°
2026-04-27 04:41 -22.02701 -42.55478 28265 ft 451 kts 243°
2026-04-27 04:41 -22.04253 -42.58389 28053 ft 440 kts 243°
2026-04-27 04:41 -22.07306 -42.64127 27981 ft 440 kts 244°
2026-04-27 04:42 -22.08820 -42.66971 27611 ft 434 kts 244°
2026-04-27 04:42 -22.10311 -42.69775 26866 ft 432 kts 244°
2026-04-27 04:42 -22.11812 -42.72601 26039 ft 431 kts 244°
2026-04-27 04:42 -22.13296 -42.75395 25300 ft 428 kts 243°
2026-04-27 04:43 -22.14748 -42.78130 24641 ft 423 kts 243°
2026-04-27 04:43 -22.16215 -42.80893 24037 ft 417 kts 244°
2026-04-27 04:43 -22.17629 -42.83561 23375 ft 413 kts 243°
2026-04-27 04:43 -22.19058 -42.86256 22693 ft 410 kts 244°
2026-04-27 04:44 -22.20458 -42.88899 22085 ft 405 kts 243°
2026-04-27 04:44 -22.21848 -42.91524 21481 ft 401 kts 243°
2026-04-27 04:44 -22.23229 -42.94134 20867 ft 398 kts 243°
2026-04-27 04:44 -22.24578 -42.96685 20270 ft 394 kts 243°
2026-04-27 04:45 -22.25931 -42.99244 19666 ft 391 kts 243°
2026-04-27 04:45 -22.27267 -43.01772 19004 ft 387 kts 243°
2026-04-27 04:45 -22.28598 -43.04292 18326 ft 385 kts 243°
2026-04-27 04:45 -22.29912 -43.06781 17664 ft 380 kts 243°
2026-04-27 04:46 -22.31218 -43.09255 16875 ft 376 kts 242°
2026-04-27 04:46 -22.32510 -43.11706 16052 ft 374 kts 242°
2026-04-27 04:46 -22.33785 -43.14125 15238 ft 372 kts 242°
2026-04-27 04:46 -22.35064 -43.16551 14423 ft 368 kts 242°
2026-04-27 04:47 -22.36315 -43.18927 13495 ft 365 kts 242°
2026-04-27 04:47 -22.37553 -43.21279 12537 ft 363 kts 242°
2026-04-27 04:47 -22.38781 -43.23612 11628 ft 359 kts 242°
2026-04-27 04:47 -22.40016 -43.25959 10734 ft 355 kts 242°
2026-04-27 04:48 -22.41217 -43.28245 10094 ft 343 kts 242°
2026-04-27 04:48 -22.42342 -43.30383 10102 ft 313 kts 242°
2026-04-27 04:48 -22.43390 -43.32376 10312 ft 297 kts 242°
2026-04-27 04:48 -22.44396 -43.34294 10269 ft 289 kts 242°
2026-04-27 04:49 -22.45384 -43.36176 9814 ft 285 kts 242°
2026-04-27 04:49 -22.46359 -43.38037 9210 ft 287 kts 242°
2026-04-27 04:49 -22.47343 -43.39913 8674 ft 284 kts 242°
2026-04-27 04:49 -22.48303 -43.41744 8154 ft 282 kts 241°
2026-04-27 04:50 -22.49266 -43.43581 7697 ft 280 kts 241°
2026-04-27 04:50 -22.50227 -43.45414 7395 ft 279 kts 241°
2026-04-27 04:50 -22.51184 -43.47240 7133 ft 277 kts 241°
2026-04-27 04:50 -22.52129 -43.49045 7084 ft 274 kts 242°
2026-04-27 04:51 -22.53068 -43.50838 7075 ft 272 kts 242°
2026-04-27 04:51 -22.53996 -43.52611 7075 ft 271 kts 240°
2026-04-27 04:51 -22.55222 -43.54147 7061 ft 273 kts 215°
2026-04-27 04:51 -22.56979 -43.54913 7054 ft 276 kts 188°
2026-04-27 04:52 -22.58882 -43.54755 6953 ft 274 kts 162°
2026-04-27 04:52 -22.60658 -43.53939 6711 ft 274 kts 154°
2026-04-27 04:52 -22.62352 -43.53032 6486 ft 274 kts 154°
2026-04-27 04:52 -22.63986 -43.51980 6283 ft 272 kts 138°
2026-04-27 04:53 -22.65254 -43.50444 6066 ft 270 kts 127°
2026-04-27 04:53 -22.66366 -43.48809 6035 ft 271 kts 126°
2026-04-27 04:53 -22.67463 -43.47151 5926 ft 268 kts 126°
2026-04-27 04:53 -22.68566 -43.45484 5538 ft 270 kts 125°
2026-04-27 04:54 -22.69648 -43.43852 5168 ft 267 kts 125°
2026-04-27 04:54 -22.70737 -43.42210 4784 ft 266 kts 124°
2026-04-27 04:54 -22.71804 -43.40600 4396 ft 265 kts 124°
2026-04-27 04:54 -22.72881 -43.38974 4041 ft 262 kts 124°
2026-04-27 04:55 -22.73934 -43.37363 3772 ft 256 kts 124°
2026-04-27 04:55 -22.74923 -43.35849 3753 ft 236 kts 124°
2026-04-27 04:55 -22.75832 -43.34458 3700 ft 216 kts 124°
2026-04-27 04:55 -22.76676 -43.33186 3534 ft 199 kts 124°
2026-04-27 04:56 -22.77453 -43.32026 3371 ft 179 kts 124°
2026-04-27 04:56 -22.78151 -43.30980 3230 ft 166 kts 123°
2026-04-27 04:56 -22.78807 -43.29997 3055 ft 157 kts 123°
2026-04-27 04:56 -22.79433 -43.29060 2953 ft 141 kts 123°
2026-04-27 04:57 -22.80012 -43.28187 3021 ft 157 kts 123°
2026-04-27 04:57 -22.80687 -43.27175 3744 ft 174 kts 123°
2026-04-27 04:57 -22.81419 -43.26075 4587 ft 186 kts 124°
2026-04-27 04:57 -22.82185 -43.24921 4948 ft 192 kts 126°
2026-04-27 04:58 -22.82952 -43.23744 4982 ft 190 kts 122°
2026-04-27 04:58 -22.83647 -43.22524 4984 ft 189 kts 118°
2026-04-27 04:58 -22.84193 -43.21239 4979 ft 186 kts 97°
2026-04-27 04:58 -22.84078 -43.19873 4992 ft 184 kts 75°
2026-04-27 04:59 -22.83767 -43.18524 4987 ft 184 kts 74°
2026-04-27 04:59 -22.83446 -43.17159 4988 ft 185 kts 75°
2026-04-27 04:59 -22.83129 -43.15810 4985 ft 185 kts 75°
2026-04-27 04:59 -22.82811 -43.14451 4980 ft 186 kts 75°
2026-04-27 05:00 -22.82536 -43.13077 4984 ft 186 kts 78°
2026-04-27 05:00 -22.82290 -43.11716 4985 ft 186 kts 78°
2026-04-27 05:00 -22.82040 -43.10331 4986 ft 186 kts 78°
2026-04-27 05:00 -22.81764 -43.08961 4987 ft 185 kts 68°
2026-04-27 05:01 -22.80960 -43.07906 4985 ft 184 kts 27°
2026-04-27 05:01 -22.79734 -43.07663 4988 ft 181 kts 353°
2026-04-27 05:01 -22.78498 -43.07968 4987 ft 181 kts 332°
2026-04-27 05:01 -22.77542 -43.08838 5004 ft 183 kts 315°
2026-04-27 05:02 -22.76659 -43.09846 5006 ft 182 kts 314°
2026-04-27 05:02 -22.75781 -43.10851 5005 ft 183 kts 314°
2026-04-27 05:02 -22.74052 -43.12826 4783 ft 181 kts 314°
2026-04-27 05:03 -22.73190 -43.13813 4539 ft 181 kts 314°
2026-04-27 05:03 -22.72331 -43.14800 4319 ft 180 kts 314°
2026-04-27 05:03 -22.71465 -43.15800 4100 ft 179 kts 314°
2026-04-27 05:03 -22.70623 -43.16781 3880 ft 178 kts 314°
2026-04-27 05:04 -22.69780 -43.17766 3655 ft 178 kts 314°
2026-04-27 05:04 -22.68956 -43.18734 3397 ft 174 kts 314°
2026-04-27 05:04 -22.68147 -43.19726 2916 ft 178 kts 310°
2026-04-27 05:04 -22.67416 -43.20802 2611 ft 172 kts 308°
2026-04-27 05:05 -22.66705 -43.21865 2796 ft 179 kts 308°
2026-04-27 05:05 -22.65973 -43.22951 2807 ft 178 kts 308°
2026-04-27 05:05 -22.65238 -43.24041 2810 ft 177 kts 308°
2026-04-27 05:05 -22.64506 -43.25128 2814 ft 178 kts 308°
2026-04-27 05:06 -22.63774 -43.26216 2816 ft 177 kts 308°
2026-04-27 05:06 -22.63085 -43.27317 2820 ft 178 kts 295°
2026-04-27 05:06 -22.62982 -43.28629 2818 ft 178 kts 257°
2026-04-27 05:06 -22.63598 -43.29767 2826 ft 177 kts 236°
2026-04-27 05:07 -22.64345 -43.30836 2823 ft 177 kts 234°
2026-04-27 05:07 -22.65085 -43.31888 2822 ft 175 kts 234°
2026-04-27 05:07 -22.65828 -43.32944 2818 ft 175 kts 234°
2026-04-27 05:07 -22.66572 -43.34001 2810 ft 176 kts 234°
2026-04-27 05:08 -22.67315 -43.35058 2808 ft 175 kts 234°
2026-04-27 05:08 -22.68053 -43.36107 2805 ft 175 kts 234°
2026-04-27 05:08 -22.68799 -43.37168 2804 ft 175 kts 234°
2026-04-27 05:08 -22.69532 -43.38212 2798 ft 174 kts 234°
2026-04-27 05:09 -22.70368 -43.39164 2799 ft 176 kts 212°
2026-04-27 05:09 -22.71550 -43.39494 2781 ft 177 kts 175°
2026-04-27 05:09 -22.72691 -43.39062 2754 ft 176 kts 141°
2026-04-27 05:09 -22.73487 -43.38061 2515 ft 173 kts 122°
2026-04-27 05:10 -22.74144 -43.37003 2305 ft 160 kts 122°
2026-04-27 05:10 -22.74758 -43.36073 2118 ft 145 kts 122°
2026-04-27 05:10 -22.75344 -43.35196 1937 ft 141 kts 122°
2026-04-27 05:10 -22.75918 -43.34336 1762 ft 140 kts 122°
2026-04-27 05:11 -22.76492 -43.33477 1584 ft 140 kts 122°
2026-04-27 05:11 -22.77064 -43.32618 1406 ft 141 kts 122°
2026-04-27 05:11 -22.77640 -43.31757 1223 ft 140 kts 123°
2026-04-27 05:11 -22.78206 -43.30909 1042 ft 138 kts 123°
2026-04-27 05:12 -22.78768 -43.30063 856 ft 138 kts 124°
2026-04-27 05:12 -22.79345 -43.29235 673 ft 137 kts 126°
2026-04-27 05:12 -22.79905 -43.28398 511 ft 134 kts 123°
2026-04-27 05:12 -22.80448 -43.27580 361 ft 133 kts 124°
2026-04-27 05:13 -22.80993 -43.26757 175 ft 133 kts 124°
2026-04-27 05:13 -22.81525 -43.25950 40 ft 126 kts 125°
2026-04-27 05:13 -22.81994 -43.25241 28 ft 102 kts 126°
2026-04-27 05:13 -22.82377 -43.24664 35 ft 86 kts 122°
2026-04-27 05:14 -22.82686 -43.24195 39 ft 61 kts 125°
2026-04-27 05:14 -22.82853 -43.23944 41 ft 24 kts 125°
2026-04-27 05:14 -22.82881 -43.23842 42 ft 12 kts 70°
2026-04-27 05:14 -22.82823 -43.23787 44 ft 0 kts 35°
2026-04-27 05:16 -22.82822 -43.23786 44 ft 1 kts 35°
2026-04-27 05:16 -22.82806 -43.23774 44 ft 4 kts 33°
2026-04-27 05:16 -22.82774 -43.23781 44 ft 6 kts 317°
2026-04-27 05:16 -22.82741 -43.23833 44 ft 9 kts 305°
2026-04-27 05:17 -22.82696 -43.23902 44 ft 12 kts 304°
2026-04-27 05:17 -22.82641 -43.23987 43 ft 15 kts 305°
2026-04-27 05:17 -22.82571 -43.24092 42 ft 18 kts 306°
2026-04-27 05:17 -22.82493 -43.24209 40 ft 18 kts 305°
2026-04-27 05:18 -22.82425 -43.24309 38 ft 16 kts 306°
2026-04-27 05:18 -22.82365 -43.24400 37 ft 9 kts 319°
2026-04-27 05:18 -22.82304 -43.24390 37 ft 11 kts 33°
2026-04-27 05:18 -22.82240 -43.24340 37 ft 12 kts 36°
2026-04-27 05:19 -22.82169 -43.24287 40 ft 12 kts 34°
2026-04-27 05:19 -22.82128 -43.24300 41 ft 7 kts 309°
2026-04-27 05:19 -22.82092 -43.24355 41 ft 10 kts 306°
2026-04-27 05:19 -22.82045 -43.24426 41 ft 12 kts 306°
2026-04-27 05:20 -22.81987 -43.24513 41 ft 13 kts 306°
2026-04-27 05:20 -22.81943 -43.24579 41 ft 8 kts 305°
2026-04-27 05:20 -22.81890 -43.24604 41 ft 11 kts 31°
2026-04-27 05:20 -22.81826 -43.24556 42 ft 6 kts 35°
2026-04-27 05:21 -22.81789 -43.24548 43 ft 5 kts 342°
2026-04-27 05:21 -22.81750 -43.24583 43 ft 9 kts 313°
2026-04-27 05:21 -22.81706 -43.24650 43 ft 12 kts 304°
2026-04-27 05:21 -22.81652 -43.24734 43 ft 14 kts 305°
2026-04-27 05:22 -22.81592 -43.24827 45 ft 15 kts 305°
2026-04-27 05:22 -22.81543 -43.24890 45 ft 11 kts 311°
2026-04-27 05:22 -22.81497 -43.24975 44 ft 14 kts 291°
2026-04-27 05:22 -22.81435 -43.25066 43 ft 14 kts 323°
2026-04-27 05:23 -22.81376 -43.25124 43 ft 11 kts 324°
2026-04-27 05:23 -22.81343 -43.25163 43 ft 2 kts 301°
2026-04-27 05:23 -22.81347 -43.25181 43 ft 4 kts 235°
2026-04-27 05:23 -22.81369 -43.25204 41 ft 3 kts 219°
2026-04-27 05:24 -22.81392 -43.25223 40 ft 4 kts 216°
2026-04-27 05:24 -22.81412 -43.25239 39 ft 2 kts 216°
2026-04-27 05:24 -22.81421 -43.25246 39 ft 0 kts 215°